Observation data for Crane on 11/14/2019      Previous  Date       Current Mesonet Observations  Soil Data  Daily Summary Page  Observations in Plain Language
KCR2 140600Z 07003KT 03/02 A3003 RMK A01 T00340017  RH  088%=      5-min Rain = 0
KCR2 140601Z 07003KT 03/02 A3003 RMK A01 T00340016  RH  089%=      5-min Rain = 0
KCR2 140602Z 08003KT 03/02 A3003 RMK A01 T00340017  RH  089%=      5-min Rain = 0
KCR2 140603Z 08003KT 03/02 A3004 RMK A01 T00330016  RH  089%=      5-min Rain = 0
KCR2 140604Z 08003KT 03/02 A3004 RMK A01 T00330017  RH  089%=      5-min Rain = 0
KCR2 140605Z 09003KT 03/02 A3004 RMK A01 T00330016  RH  089%=      5-min Rain = 0
KCR2 140606Z 09003KT 03/02 A3004 RMK A01 T00330016  RH  089%=      5-min Rain = 0
KCR2 140607Z 09003KT 03/02 A3004 RMK A01 T00320016  RH  089%=      5-min Rain = 0
KCR2 140608Z 10003KT 03/02 A3004 RMK A01 T00320015  RH  089%=      5-min Rain = 0
KCR2 140609Z 09003KT 03/02 A3004 RMK A01 T00310015  RH  089%=      5-min Rain = 0
KCR2 140610Z 09003KT 03/02 A3004 RMK A01 T00310015  RH  089%=      5-min Rain = 0
KCR2 140611Z 09003KT 03/01 A3004 RMK A01 T00300014  RH  089%=      5-min Rain = 0
KCR2 140612Z 09003KT 03/01 A3004 RMK A01 T00300014  RH  089%=      5-min Rain = 0
KCR2 140613Z 09003KT 03/01 A3004 RMK A01 T00300014  RH  089%=      5-min Rain = 0
KCR2 140614Z 09004KT 03/01 A3004 RMK A01 T00290014  RH  090%=      5-min Rain = 0
KCR2 140615Z 09004KT 03/01 A3004 RMK A01 T00290014  RH  090%=      5-min Rain = 0
KCR2 140616Z 09004KT 03/01 A3004 RMK A01 T00290014  RH  090%=      5-min Rain = 0
KCR2 140617Z 10004KT 03/01 A3004 RMK A01 T00290014  RH  090%=      5-min Rain = 0
KCR2 140618Z 10003KT 03/01 A3004 RMK A01 T00280013  RH  090%=      5-min Rain = 0
KCR2 140619Z 10003KT 03/01 A3004 RMK A01 T00280013  RH  090%=      5-min Rain = 0
KCR2 140620Z 09002KT 03/01 A3004 RMK A01 T00280013  RH  090%=      5-min Rain = 0
KCR2 140621Z 08002KT 03/01 A3004 RMK A01 T00270013  RH  090%=      5-min Rain = 0
KCR2 140622Z 08003KT 03/01 A3004 RMK A01 T00270013  RH  090%=      5-min Rain = 0
KCR2 140623Z 07003KT 03/01 A3004 RMK A01 T00270013  RH  090%=      5-min Rain = 0
KCR2 140624Z 07004KT 03/01 A3004 RMK A01 T00270013  RH  090%=      5-min Rain = 0
KCR2 140625Z 07003KT 03/01 A3004 RMK A01 T00270013  RH  091%=      5-min Rain = 0
KCR2 140626Z 08004KT 03/01 A3004 RMK A01 T00270013  RH  091%=      5-min Rain = 0
KCR2 140627Z 08004KT 03/01 A3004 RMK A01 T00260013  RH  091%=      5-min Rain = 0
KCR2 140628Z 08004KT 03/01 A3004 RMK A01 T00260013  RH  091%=      5-min Rain = 0
KCR2 140629Z 08003KT 03/01 A3004 RMK A01 T00260013  RH  091%=      5-min Rain = 0
KCR2 140630Z 08003KT 03/01 A3004 RMK A01 T00260013  RH  091%=      5-min Rain = 0
KCR2 140631Z 07004KT 03/01 A3004 RMK A01 T00260013  RH  091%=      5-min Rain = 0
KCR2 140632Z 07004KT 03/01 A3004 RMK A01 T00260013  RH  091%=      5-min Rain = 0
KCR2 140633Z 07004KT 03/01 A3004 RMK A01 T00260013  RH  091%=      5-min Rain = 0
KCR2 140634Z 07004KT 03/01 A3004 RMK A01 T00260013  RH  091%=      5-min Rain = 0
KCR2 140635Z 08004KT 03/01 A3004 RMK A01 T00260013  RH  091%=      5-min Rain = 0
KCR2 140636Z 08004KT 03/01 A3005 RMK A01 T00260012  RH  091%=      5-min Rain = 0
KCR2 140637Z 08004KT 03/01 A3005 RMK A01 T00260013  RH  091%=      5-min Rain = 0
KCR2 140638Z 08005KT 03/01 A3005 RMK A01 T00260013  RH  091%=      5-min Rain = 0
KCR2 140639Z 08005KT 03/01 A3005 RMK A01 T00260013  RH  091%=      5-min Rain = 0
KCR2 140640Z 07004KT 03/01 A3005 RMK A01 T00250012  RH  091%=      5-min Rain = 0
KCR2 140641Z 07004KT 03/01 A3005 RMK A01 T00250013  RH  091%=      5-min Rain = 0
KCR2 140642Z 08004KT 03/01 A3005 RMK A01 T00250013  RH  091%=      5-min Rain = 0
KCR2 140643Z 07004KT 03/01 A3005 RMK A01 T00250013  RH  092%=      5-min Rain = 0
KCR2 140644Z 07004KT 03/01 A3005 RMK A01 T00250013  RH  092%=      5-min Rain = 0
KCR2 140645Z 07004KT 03/01 A3005 RMK A01 T00250013  RH  092%=      5-min Rain = 0
KCR2 140646Z 07004KT 03/01 A3005 RMK A01 T00250013  RH  092%=      5-min Rain = 0
KCR2 140647Z 08004KT 03/01 A3005 RMK A01 T00250013  RH  092%=      5-min Rain = 0
KCR2 140648Z 08004KT 03/01 A3005 RMK A01 T00250013  RH  092%=      5-min Rain = 0
KCR2 140649Z 08004KT 03/01 A3005 RMK A01 T00250013  RH  092%=      5-min Rain = 0
KCR2 140650Z 08004KT 03/01 A3005 RMK A01 T00250013  RH  092%=      5-min Rain = 0
KCR2 140651Z 07005KT 03/01 A3005 RMK A01 T00250013  RH  092%=      5-min Rain = 0
KCR2 140652Z 07004KT 03/01 A3005 RMK A01 T00250013  RH  092%=      5-min Rain = 0
KCR2 140653Z 07004KT 03/01 A3005 RMK A01 T00250012  RH  092%=      5-min Rain = 0
KCR2 140654Z 08004KT 02/01 A3005 RMK A01 T00240012  RH  092%=      5-min Rain = 0
KCR2 140655Z 07005KT 02/01 A3005 RMK A01 T00240012  RH  092%=      5-min Rain = 0
KCR2 140656Z 07005KT 02/01 A3005 RMK A01 T00240012  RH  092%=      5-min Rain = 0
KCR2 140657Z 07006KT 02/01 A3005 RMK A01 T00240013  RH  092%=      5-min Rain = 0
KCR2 140658Z 07005KT 02/01 A3005 RMK A01 T00240013  RH  092%=      5-min Rain = 0
KCR2 140659Z 06005KT 02/01 A3005 RMK A01 T00240013  RH  092%=      5-min Rain = 0
KCR2 140700Z 06004KT 03/01 A3005 RMK A01 T00250013  RH  092%=      5-min Rain = 0
KCR2 140701Z 06004KT 03/01 A3005 RMK A01 T00250013  RH  092%=      5-min Rain = 0
KCR2 140702Z 06004KT 03/01 A3005 RMK A01 T00250013  RH  092%=      5-min Rain = 0
KCR2 140703Z 06004KT 02/01 A3005 RMK A01 T00240012  RH  092%=      5-min Rain = 0
KCR2 140704Z 06004KT 02/01 A3005 RMK A01 T00230010  RH  091%=      5-min Rain = 0
KCR2 140705Z 06004KT 02/01 A3005 RMK A01 T00220009  RH  091%=      5-min Rain = 0
KCR2 140706Z 06004KT 02/01 A3005 RMK A01 T00210008  RH  091%=      5-min Rain = 0
KCR2 140707Z 06004KT 02/01 A3005 RMK A01 T00210008  RH  092%=      5-min Rain = 0
KCR2 140708Z 06004KT 02/01 A3005 RMK A01 T00200008  RH  092%=      5-min Rain = 0
KCR2 140709Z 05004KT 02/01 A3005 RMK A01 T00200008  RH  092%=      5-min Rain = 0
KCR2 140710Z 05004KT 02/01 A3005 RMK A01 T00190008  RH  092%=      5-min Rain = 0
KCR2 140711Z 05004KT 02/01 A3005 RMK A01 T00200008  RH  092%=      5-min Rain = 0
KCR2 140712Z 05004KT 02/01 A3005 RMK A01 T00190008  RH  092%=      5-min Rain = 0
KCR2 140713Z 05005KT 02/01 A3005 RMK A01 T00190008  RH  092%=      5-min Rain = 0
KCR2 140714Z 05005KT 02/01 A3006 RMK A01 T00190008  RH  093%=      5-min Rain = 0
KCR2 140715Z 05006KT 02/01 A3006 RMK A01 T00190008  RH  093%=      5-min Rain = 0
KCR2 140716Z 05005KT 02/01 A3006 RMK A01 T00190009  RH  093%=      5-min Rain = 0
KCR2 140717Z 05005KT 02/01 A3006 RMK A01 T00190009  RH  093%=      5-min Rain = 0
KCR2 140718Z 05005KT 02/01 A3006 RMK A01 T00190009  RH  093%=      5-min Rain = 0
KCR2 140719Z 04005KT 02/01 A3006 RMK A01 T00190009  RH  093%=      5-min Rain = 0
KCR2 140720Z 04005KT 02/01 A3006 RMK A01 T00190009  RH  093%=      5-min Rain = 0
KCR2 140721Z 04005KT 02/01 A3006 RMK A01 T00190009  RH  093%=      5-min Rain = 0
KCR2 140722Z 03005KT 02/01 A3006 RMK A01 T00190010  RH  094%=      5-min Rain = 0
KCR2 140723Z 03005KT 02/01 A3006 RMK A01 T00190009  RH  094%=      5-min Rain = 0
KCR2 140724Z 04004KT 02/01 A3006 RMK A01 T00190010  RH  094%=      5-min Rain = 0
KCR2 140725Z 03004KT 02/01 A3006 RMK A01 T00190010  RH  094%=      5-min Rain = 0
KCR2 140726Z 04004KT 02/01 A3006 RMK A01 T00190010  RH  094%=      5-min Rain = 0
KCR2 140727Z 04004KT 02/01 A3006 RMK A01 T00190009  RH  093%=      5-min Rain = 0
KCR2 140728Z 04004KT 02/01 A3006 RMK A01 T00180009  RH  093%=      5-min Rain = 0
KCR2 140729Z 04004KT 02/01 A3006 RMK A01 T00180009  RH  093%=      5-min Rain = 0
KCR2 140730Z 04005KT 02/01 A3006 RMK A01 T00180008  RH  094%=      5-min Rain = 0
KCR2 140731Z 04005KT 02/01 A3006 RMK A01 T00180008  RH  094%=      5-min Rain = 0
KCR2 140732Z 04006KT 02/01 A3006 RMK A01 T00180009  RH  094%=      5-min Rain = 0
KCR2 140733Z 04006KT 02/01 A3006 RMK A01 T00180009  RH  094%=      5-min Rain = 0
KCR2 140734Z 04005KT 02/01 A3006 RMK A01 T00180010  RH  094%=      5-min Rain = 0
KCR2 140735Z 04005KT 02/01 A3006 RMK A01 T00180010  RH  094%=      5-min Rain = 0
KCR2 140736Z 05005KT 02/01 A3006 RMK A01 T00180010  RH  094%=      5-min Rain = 0
KCR2 140737Z 05005KT 02/01 A3006 RMK A01 T00180010  RH  094%=      5-min Rain = 0
KCR2 140738Z 05005KT 02/01 A3006 RMK A01 T00180009  RH  094%=      5-min Rain = 0
KCR2 140739Z 05005KT 02/01 A3006 RMK A01 T00180009  RH  094%=      5-min Rain = 0
KCR2 140740Z 06005KT 02/01 A3006 RMK A01 T00180009  RH  094%=      5-min Rain = 0
KCR2 140741Z 05004KT 02/01 A3006 RMK A01 T00180009  RH  094%=      5-min Rain = 0
KCR2 140742Z 06004KT 02/01 A3006 RMK A01 T00180009  RH  094%=      5-min Rain = 0
KCR2 140743Z 06004KT 02/01 A3007 RMK A01 T00180009  RH  094%=      5-min Rain = 0
KCR2 140744Z 06004KT 02/01 A3007 RMK A01 T00170008  RH  094%=      5-min Rain = 0
KCR2 140745Z 06005KT 02/01 A3007 RMK A01 T00170008  RH  094%=      5-min Rain = 0
KCR2 140746Z 06004KT 02/01 A3007 RMK A01 T00170008  RH  094%=      5-min Rain = 0
KCR2 140747Z 06005KT 02/01 A3007 RMK A01 T00170008  RH  094%=      5-min Rain = 0
KCR2 140748Z 06004KT 02/01 A3007 RMK A01 T00170008  RH  094%=      5-min Rain = 0
KCR2 140749Z 06004KT 02/01 A3007 RMK A01 T00170008  RH  094%=      5-min Rain = 0
KCR2 140750Z 06004KT 02/01 A3007 RMK A01 T00170008  RH  094%=      5-min Rain = 0
KCR2 140751Z 07005KT 02/01 A3007 RMK A01 T00170007  RH  094%=      5-min Rain = 0
KCR2 140752Z 07004KT 02/01 A3007 RMK A01 T00160007  RH  094%=      5-min Rain = 0
KCR2 140753Z 06004KT 02/01 A3007 RMK A01 T00160007  RH  094%=      5-min Rain = 0
KCR2 140754Z 07005KT 02/01 A3007 RMK A01 T00160007  RH  094%=      5-min Rain = 0
KCR2 140755Z 07005KT 02/01 A3007 RMK A01 T00160007  RH  094%=      5-min Rain = 0
KCR2 140756Z 07004KT 02/01 A3007 RMK A01 T00160006  RH  094%=      5-min Rain = 0
KCR2 140757Z 07004KT 02/01 A3007 RMK A01 T00150006  RH  094%=      5-min Rain = 0
KCR2 140758Z 07005KT 02/01 A3007 RMK A01 T00150006  RH  094%=      5-min Rain = 0
KCR2 140759Z 07005KT 02/01 A3007 RMK A01 T00150006  RH  094%=      5-min Rain = 0
KCR2 140800Z 07005KT 02/01 A3008 RMK A01 T00150006  RH  094%=      5-min Rain = 0
KCR2 140801Z 07005KT 02/01 A3008 RMK A01 T00150006  RH  094%=      5-min Rain = 0
KCR2 140802Z 07004KT 02/01 A3008 RMK A01 T00150006  RH  094%=      5-min Rain = 0
KCR2 140803Z 07004KT 02/01 A3008 RMK A01 T00150006  RH  094%=      5-min Rain = 0
KCR2 140804Z 06004KT 02/01 A3008 RMK A01 T00150006  RH  094%=      5-min Rain = 0
KCR2 140805Z 06005KT 02/01 A3008 RMK A01 T00150006  RH  094%=      5-min Rain = 0
KCR2 140806Z 06005KT 02/01 A3008 RMK A01 T00150006  RH  094%=      5-min Rain = 0
KCR2 140807Z 05005KT 01/01 A3008 RMK A01 T00140006  RH  094%=      5-min Rain = 0
KCR2 140808Z 06005KT 02/01 A3008 RMK A01 T00150006  RH  094%=      5-min Rain = 0
KCR2 140809Z 05004KT 01/01 A3008 RMK A01 T00140006  RH  094%=      5-min Rain = 0
KCR2 140810Z 05005KT 01/01 A3008 RMK A01 T00140005  RH  094%=      5-min Rain = 0
KCR2 140811Z 04005KT 01/00 A3008 RMK A01 T00130003  RH  094%=      5-min Rain = 0
KCR2 140812Z 04005KT 01/00 A3008 RMK A01 T00120003  RH  094%=      5-min Rain = 0
KCR2 140813Z 04004KT 01/00 A3008 RMK A01 T00120003  RH  094%=      5-min Rain = 0
KCR2 140814Z 04004KT 01/00 A3008 RMK A01 T00110002  RH  094%=      5-min Rain = 0
KCR2 140815Z 04004KT 01/00 A3008 RMK A01 T00110002  RH  094%=      5-min Rain = 0
KCR2 140816Z 04004KT 01/00 A3008 RMK A01 T00110003  RH  094%=      5-min Rain = 0
KCR2 140817Z 04005KT 01/00 A3008 RMK A01 T00110003  RH  094%=      5-min Rain = 0
KCR2 140818Z 04005KT 01/00 A3008 RMK A01 T00110003  RH  095%=      5-min Rain = 0
KCR2 140819Z 04004KT 01/00 A3008 RMK A01 T00110003  RH  095%=      5-min Rain = 0
KCR2 140820Z 04004KT 01/00 A3008 RMK A01 T00110003  RH  095%=      5-min Rain = 0
KCR2 140821Z 03004KT 01/00 A3008 RMK A01 T00110003  RH  095%=      5-min Rain = 0
KCR2 140822Z 03004KT 01/00 A3008 RMK A01 T00110003  RH  095%=      5-min Rain = 0
KCR2 140823Z 03004KT 01/00 A3008 RMK A01 T00100003  RH  095%=      5-min Rain = 0
KCR2 140824Z 03005KT 01/00 A3008 RMK A01 T00100002  RH  094%=      5-min Rain = 0
KCR2 140825Z 04005KT 01/00 A3008 RMK A01 T00090001  RH  095%=      5-min Rain = 0
KCR2 140826Z 04005KT 01/00 A3009 RMK A01 T00090001  RH  095%=      5-min Rain = 0
KCR2 140827Z 03005KT 01/00 A3009 RMK A01 T00090002  RH  095%=      5-min Rain = 0
KCR2 140828Z 03006KT 01/00 A3009 RMK A01 T00090002  RH  095%=      5-min Rain = 0
KCR2 140829Z 03006KT 01/00 A3009 RMK A01 T00090002  RH  095%=      5-min Rain = 0
KCR2 140830Z 03006KT 01/00 A3009 RMK A01 T00090002  RH  095%=      5-min Rain = 0
KCR2 140831Z 03006KT 01/00 A3009 RMK A01 T00090002  RH  095%=      5-min Rain = 0
KCR2 140832Z 03006KT 01/00 A3009 RMK A01 T00090002  RH  095%=      5-min Rain = 0
KCR2 140833Z 03005KT 01/00 A3009 RMK A01 T00090002  RH  095%=      5-min Rain = 0
KCR2 140834Z 04006KT 01/00 A3009 RMK A01 T00090002  RH  095%=      5-min Rain = 0
KCR2 140835Z 04005KT 01/00 A3009 RMK A01 T00090002  RH  095%=      5-min Rain = 0
KCR2 140836Z 04005KT 01/00 A3009 RMK A01 T00100003  RH  095%=      5-min Rain = 0
KCR2 140837Z 04005KT 01/00 A3009 RMK A01 T00100003  RH  095%=      5-min Rain = 0
KCR2 140838Z 04006KT 01/00 A3009 RMK A01 T00100003  RH  095%=      5-min Rain = 0
KCR2 140839Z 04005KT 01/00 A3009 RMK A01 T00100004  RH  095%=      5-min Rain = 0
KCR2 140840Z 04005KT 01/00 A3009 RMK A01 T00110004  RH  095%=      5-min Rain = 0
KCR2 140841Z 05005KT 01/00 A3009 RMK A01 T00110004  RH  095%=      5-min Rain = 0
KCR2 140842Z 04005KT 01/00 A3009 RMK A01 T00110004  RH  095%=      5-min Rain = 0
KCR2 140843Z 05005KT 01/00 A3009 RMK A01 T00110004  RH  095%=      5-min Rain = 0
KCR2 140844Z 05005KT 01/00 A3009 RMK A01 T00110004  RH  095%=      5-min Rain = 0
KCR2 140845Z 05005KT 01/00 A3009 RMK A01 T00110004  RH  095%=      5-min Rain = 0
KCR2 140846Z 05005KT 01/00 A3009 RMK A01 T00110004  RH  095%=      5-min Rain = 0
KCR2 140847Z 06005KT 01/00 A3009 RMK A01 T00110004  RH  095%=      5-min Rain = 0
KCR2 140848Z 06005KT 01/00 A3009 RMK A01 T00110004  RH  095%=      5-min Rain = 0
KCR2 140849Z 07004KT 01/00 A3009 RMK A01 T00110004  RH  095%=      5-min Rain = 0
KCR2 140850Z 07004KT 01/00 A3009 RMK A01 T00110004  RH  095%=      5-min Rain = 0
KCR2 140851Z 07005KT 01/00 A3009 RMK A01 T00110004  RH  095%=      5-min Rain = 0
KCR2 140852Z 07005KT 01/00 A301 RMK A01 T00110004  RH  095%=      5-min Rain = 0
KCR2 140853Z 07004KT 01/00 A3009 RMK A01 T00110003  RH  095%=      5-min Rain = 0
KCR2 140854Z 07004KT 01/00 A3009 RMK A01 T00110003  RH  095%=      5-min Rain = 0
KCR2 140855Z 07005KT 01/00 A3009 RMK A01 T00100003  RH  095%=      5-min Rain = 0
KCR2 140856Z 07005KT 01/00 A3009 RMK A01 T00100002  RH  095%=      5-min Rain = 0
KCR2 140857Z 07005KT 01/00 A3009 RMK A01 T00100002  RH  095%=      5-min Rain = 0
KCR2 140858Z 06005KT 01/00 A3009 RMK A01 T00100002  RH  095%=      5-min Rain = 0
KCR2 140859Z 06005KT 01/00 A3009 RMK A01 T00090002  RH  095%=      5-min Rain = 0
KCR2 140900Z 06005KT 01/00 A301 RMK A01 T00090002  RH  095%=      5-min Rain = 0
KCR2 140901Z 06006KT 01/00 A301 RMK A01 T00090002  RH  095%=      5-min Rain = 0
KCR2 140902Z 07005KT 01/00 A301 RMK A01 T00090002  RH  095%=      5-min Rain = 0
KCR2 140903Z 07006KT 01/00 A301 RMK A01 T00100002  RH  095%=      5-min Rain = 0
KCR2 140904Z 07005KT 01/00 A301 RMK A01 T00100003  RH  095%=      5-min Rain = 0
KCR2 140905Z 07005KT 01/00 A301 RMK A01 T00100003  RH  095%=      5-min Rain = 0
KCR2 140906Z 07005KT 01/00 A301 RMK A01 T00100003  RH  095%=      5-min Rain = 0
KCR2 140907Z 06005KT 01/00 A301 RMK A01 T00100003  RH  095%=      5-min Rain = 0
KCR2 140908Z 06005KT 01/00 A301 RMK A01 T00100003  RH  095%=      5-min Rain = 0
KCR2 140909Z 06006KT 01/00 A301 RMK A01 T00100003  RH  095%=      5-min Rain = 0
KCR2 140910Z 06006KT 01/00 A301 RMK A01 T00100003  RH  095%=      5-min Rain = 0
KCR2 140911Z 06006KT 01/00 A301 RMK A01 T00100003  RH  095%=      5-min Rain = 0
KCR2 140912Z 06006KT 01/00 A301 RMK A01 T00100003  RH  095%=      5-min Rain = 0
KCR2 140913Z 07006KT 01/00 A301 RMK A01 T00100002  RH  095%=      5-min Rain = 0
KCR2 140914Z 07005KT 01/00 A301 RMK A01 T00100003  RH  095%=      5-min Rain = 0
KCR2 140915Z 06005KT 01/00 A301 RMK A01 T00100003  RH  095%=      5-min Rain = 0
KCR2 140916Z 06005KT 01/00 A301 RMK A01 T00100003  RH  095%=      5-min Rain = 0
KCR2 140917Z 06005KT 01/00 A301 RMK A01 T00090003  RH  095%=      5-min Rain = 0
KCR2 140918Z 06004KT 01/00 A301 RMK A01 T00100003  RH  095%=      5-min Rain = 0
KCR2 140919Z 06005KT 01/00 A301 RMK A01 T00090003  RH  095%=      5-min Rain = 0
KCR2 140920Z 06005KT 01/00 A301 RMK A01 T00100003  RH  095%=      5-min Rain = 0
KCR2 140921Z 06005KT 01/00 A301 RMK A01 T00100003  RH  095%=      5-min Rain = 0
KCR2 140922Z 05005KT 01/00 A301 RMK A01 T00100003  RH  095%=      5-min Rain = 0
KCR2 140923Z 06005KT 01/00 A301 RMK A01 T00090002  RH  095%=      5-min Rain = 0
KCR2 140924Z 06005KT 01/00 A301 RMK A01 T00090002  RH  095%=      5-min Rain = 0
KCR2 140925Z 05005KT 01/00 A3011 RMK A01 T00090002  RH  095%=      5-min Rain = 0
KCR2 140926Z 06005KT 01/00 A3011 RMK A01 T00090002  RH  095%=      5-min Rain = 0
KCR2 140927Z 06005KT 01/00 A3011 RMK A01 T00090002  RH  095%=      5-min Rain = 0
KCR2 140928Z 07005KT 01/00 A3011 RMK A01 T00090002  RH  095%=      5-min Rain = 0
KCR2 140929Z 07005KT 01/00 A3011 RMK A01 T00090003  RH  095%=      5-min Rain = 0
KCR2 140930Z 06005KT 01/00 A3011 RMK A01 T00090003  RH  095%=      5-min Rain = 0
KCR2 140931Z 06004KT 01/00 A3011 RMK A01 T00090003  RH  096%=      5-min Rain = 0
KCR2 140932Z 06004KT 01/00 A3011 RMK A01 T00090003  RH  096%=      5-min Rain = 0
KCR2 140933Z 06005KT 01/00 A3011 RMK A01 T00090003  RH  095%=      5-min Rain = 0
KCR2 140934Z 06005KT 01/00 A3011 RMK A01 T00090003  RH  096%=      5-min Rain = 0
KCR2 140935Z 06006KT 01/00 A3011 RMK A01 T00090003  RH  096%=      5-min Rain = 0
KCR2 140936Z 06005KT 01/00 A3011 RMK A01 T00090003  RH  096%=      5-min Rain = 0
KCR2 140937Z 05005KT 01/00 A3011 RMK A01 T00090003  RH  096%=      5-min Rain = 0
KCR2 140938Z 05005KT 01/00 A3011 RMK A01 T00090003  RH  096%=      5-min Rain = 0
KCR2 140939Z 05005KT 01/00 A3011 RMK A01 T00090003  RH  096%=      5-min Rain = 0
KCR2 140940Z 05006KT 01/00 A3011 RMK A01 T00090003  RH  096%=      5-min Rain = 0
KCR2 140941Z 06005KT 01/00 A3012 RMK A01 T00090003  RH  096%=      5-min Rain = 0
KCR2 140942Z 07005KT 01/00 A3012 RMK A01 T00090003  RH  096%=      5-min Rain = 0
KCR2 140943Z 06005KT 01/00 A3012 RMK A01 T00090003  RH  096%=      5-min Rain = 0
KCR2 140944Z 06006KT 01/00 A3012 RMK A01 T00090003  RH  096%=      5-min Rain = 0
KCR2 140945Z 07004KT 01/00 A3012 RMK A01 T00090003  RH  096%=      5-min Rain = 0
KCR2 140946Z 06005KT 01/00 A3012 RMK A01 T00090003  RH  096%=      5-min Rain = 0
KCR2 140947Z 06006KT 01/00 A3012 RMK A01 T00090003  RH  096%=      5-min Rain = 0
KCR2 140948Z 06005KT 01/00 A3012 RMK A01 T00090003  RH  096%=      5-min Rain = 0
KCR2 140949Z 07006KT 01/00 A3012 RMK A01 T00090003  RH  096%=      5-min Rain = 0
KCR2 140950Z 06006KT 01/00 A3012 RMK A01 T00090003  RH  096%=      5-min Rain = 0
KCR2 140951Z 06006KT 01/00 A3012 RMK A01 T00090003  RH  096%=      5-min Rain = 0
KCR2 140952Z 06006KT 01/00 A3012 RMK A01 T00090003  RH  096%=      5-min Rain = 0
KCR2 140953Z 06006KT 01/00 A3012 RMK A01 T00090003  RH  096%=      5-min Rain = 0
KCR2 140954Z 06006KT 01/00 A3012 RMK A01 T00090003  RH  096%=      5-min Rain = 0
KCR2 140955Z 07006KT 01/00 A3012 RMK A01 T00080002  RH  096%=      5-min Rain = 0
KCR2 140956Z 07006KT 01/00 A3012 RMK A01 T00080002  RH  096%=      5-min Rain = 0
KCR2 140957Z 08006KT 01/00 A3012 RMK A01 T00080002  RH  096%=      5-min Rain = 0
KCR2 140958Z 08006KT 01/00 A3012 RMK A01 T00080002  RH  096%=      5-min Rain = 0
KCR2 140959Z 08006KT 01/00 A3013 RMK A01 T00080002  RH  096%=      5-min Rain = 0
KCR2 141000Z 08007KT 01/00 A3013 RMK A01 T00080002  RH  096%=      5-min Rain = 0
KCR2 141001Z 07007KT 01/00 A3012 RMK A01 T00080002  RH  096%=      5-min Rain = 0
KCR2 141002Z 07007KT 01/00 A3013 RMK A01 T00080002  RH  096%=      5-min Rain = 0
KCR2 141003Z 07007KT 01/00 A3013 RMK A01 T00080002  RH  096%=      5-min Rain = 0
KCR2 141004Z 07007KT 01/00 A3013 RMK A01 T00070001  RH  096%=      5-min Rain = 0
KCR2 141005Z 07007KT 01/00 A3012 RMK A01 T00070001  RH  096%=      5-min Rain = 0
KCR2 141006Z 07008KT 01/00 A3013 RMK A01 T00080002  RH  096%=      5-min Rain = 0
KCR2 141007Z 07008KT 01/00 A3013 RMK A01 T00080002  RH  096%=      5-min Rain = 0
KCR2 141008Z 08007KT 01/00 A3013 RMK A01 T00080002  RH  096%=      5-min Rain = 0
KCR2 141009Z 08008KT 01/00 A3013 RMK A01 T00080002  RH  096%=      5-min Rain = 0
KCR2 141010Z 07008KT 01/00 A3013 RMK A01 T00080002  RH  096%=      5-min Rain = 0
KCR2 141011Z 07008KT 01/00 A3013 RMK A01 T00080002  RH  096%=      5-min Rain = 0
KCR2 141012Z 08007KT 01/00 A3013 RMK A01 T00080002  RH  096%=      5-min Rain = 0
KCR2 141013Z 08007KT 01/00 A3013 RMK A01 T00080002  RH  096%=      5-min Rain = 0
KCR2 141014Z 07007KT 01/00 A3013 RMK A01 T00070002  RH  096%=      5-min Rain = 0
KCR2 141015Z 07006KT 01/00 A3013 RMK A01 T00070002  RH  096%=      5-min Rain = 0
KCR2 141016Z 07006KT 01/00 A3013 RMK A01 T00070002  RH  096%=      5-min Rain = 0
KCR2 141017Z 07006KT 01/00 A3013 RMK A01 T00070001  RH  096%=      5-min Rain = 0
KCR2 141018Z 07006KT 01/00 A3013 RMK A01 T00060001  RH  096%=      5-min Rain = 0
KCR2 141019Z 08006KT 01/00 A3013 RMK A01 T00060001  RH  096%=      5-min Rain = 0
KCR2 141020Z 08005KT 01/00 A3013 RMK A01 T00060001  RH  096%=      5-min Rain = 0
KCR2 141021Z 10004KT 01/00 A3013 RMK A01 T00060000  RH  096%=      5-min Rain = 0
KCR2 141022Z 09006KT 01/M00 A3013 RMK A01 T00051001  RH  096%=      5-min Rain = 0
KCR2 141023Z 09006KT 01/M00 A3013 RMK A01 T00051001  RH  096%=      5-min Rain = 0
KCR2 141024Z 09006KT 01/M00 A3013 RMK A01 T00051001  RH  096%=      5-min Rain = 0
KCR2 141025Z 09006KT 01/00 A3013 RMK A01 T000500-0  RH  096%=      5-min Rain = 0
KCR2 141026Z 09005KT 00/M00 A3013 RMK A01 T00041001  RH  096%=      5-min Rain = 0
KCR2 141027Z 08005KT 00/M00 A3013 RMK A01 T00041001  RH  096%=      5-min Rain = 0
KCR2 141028Z 08005KT 00/M00 A3014 RMK A01 T00041001  RH  096%=      5-min Rain = 0
KCR2 141029Z 09006KT 00/M00 A3014 RMK A01 T00031002  RH  096%=      5-min Rain = 0
KCR2 141030Z 09006KT 00/M00 A3013 RMK A01 T00031002  RH  097%=      5-min Rain = 0
KCR2 141031Z 09006KT 00/M00 A3013 RMK A01 T00031002  RH  097%=      5-min Rain = 0
KCR2 141032Z 09006KT 00/M00 A3014 RMK A01 T00031002  RH  097%=      5-min Rain = 0
KCR2 141033Z 09006KT 00/M00 A3014 RMK A01 T00031002  RH  097%=      5-min Rain = 0
KCR2 141034Z 09006KT 00/M00 A3014 RMK A01 T00031002  RH  097%=      5-min Rain = 0
KCR2 141035Z 09005KT 00/M00 A3014 RMK A01 T00021002  RH  097%=      5-min Rain = 0
KCR2 141036Z 08005KT 00/M00 A3014 RMK A01 T00021003  RH  097%=      5-min Rain = 0
KCR2 141037Z 08005KT 00/M00 A3014 RMK A01 T00021003  RH  097%=      5-min Rain = 0
KCR2 141038Z 08005KT 00/M00 A3014 RMK A01 T00011003  RH  097%=      5-min Rain = 0
KCR2 141039Z 09005KT 00/M00 A3014 RMK A01 T00011003  RH  097%=      5-min Rain = 0
KCR2 141040Z 09005KT 00/M00 A3014 RMK A01 T00011004  RH  097%=      5-min Rain = 0
KCR2 141041Z 09005KT 00/M00 A3014 RMK A01 T00011003  RH  097%=      5-min Rain = 0
KCR2 141042Z 09006KT 00/M00 A3014 RMK A01 T00011004  RH  097%=      5-min Rain = 0
KCR2 141043Z 09005KT 00/M00 A3014 RMK A01 T00011004  RH  097%=      5-min Rain = 0
KCR2 141044Z 08005KT 00/M00 A3014 RMK A01 T00011003  RH  097%=      5-min Rain = 0
KCR2 141045Z 08005KT 00/M00 A3014 RMK A01 T00011003  RH  097%=      5-min Rain = 0
KCR2 141046Z 08005KT 00/M00 A3014 RMK A01 T00011004  RH  097%=      5-min Rain = 0
KCR2 141047Z 08005KT 00/M00 A3014 RMK A01 T00011004  RH  097%=      5-min Rain = 0
KCR2 141048Z 09006KT 00/M00 A3014 RMK A01 T00011004  RH  097%=      5-min Rain = 0
KCR2 141049Z 09005KT 00/M00 A3014 RMK A01 T00011004  RH  097%=      5-min Rain = 0
KCR2 141050Z 09006KT 00/M00 A3014 RMK A01 T00011004  RH  097%=      5-min Rain = 0
KCR2 141051Z 09006KT 00/00 A3014 RMK A01 T000000-4  RH  097%=      5-min Rain = 0
KCR2 141052Z 09006KT 00/M00 A3014 RMK A01 T00011003  RH  097%=      5-min Rain = 0
KCR2 141053Z 10006KT 00/M00 A3014 RMK A01 T00011003  RH  097%=      5-min Rain = 0
KCR2 141054Z 10006KT 00/M00 A3014 RMK A01 T00011003  RH  097%=      5-min Rain = 0
KCR2 141055Z 10006KT 00/00 A3014 RMK A01 T000000-3  RH  097%=      5-min Rain = 0
KCR2 141056Z 10006KT 00/00 A3014 RMK A01 T000000-3  RH  097%=      5-min Rain = 0
KCR2 141057Z 10006KT 00/00 A3014 RMK A01 T000000-3  RH  097%=      5-min Rain = 0
KCR2 141058Z 10007KT 00/00 A3014 RMK A01 T000000-3  RH  097%=      5-min Rain = 0
KCR2 141059Z 10007KT 00/M00 A3014 RMK A01 T00011003  RH  098%=      5-min Rain = 0
KCR2 141100Z 10007KT 00/M00 A3014 RMK A01 T00011002  RH  098%=      5-min Rain = 0
KCR2 141101Z 10006KT 00/M00 A3014 RMK A01 T00011002  RH  098%=      5-min Rain = 0
KCR2 141102Z 10006KT 00/M00 A3014 RMK A01 T00011002  RH  098%=      5-min Rain = 0
KCR2 141103Z 10006KT 00/M00 A3014 RMK A01 T00021002  RH  098%=      5-min Rain = 0
KCR2 141104Z 10006KT 00/M00 A3014 RMK A01 T00021001  RH  098%=      5-min Rain = 0
KCR2 141105Z 10005KT 00/M00 A3014 RMK A01 T00021001  RH  098%=      5-min Rain = 0
KCR2 141106Z 09006KT 00/00 A3014 RMK A01 T000300-0  RH  098%=      5-min Rain = 0
KCR2 141107Z 09006KT 00/00 A3014 RMK A01 T000300-0  RH  098%=      5-min Rain = 0
KCR2 141108Z 09005KT 00/00 A3014 RMK A01 T000300-0  RH  098%=      5-min Rain = 0
KCR2 141109Z 10005KT 00/00 A3014 RMK A01 T000300-0  RH  098%=      5-min Rain = 0
KCR2 141110Z 10005KT 00/00 A3014 RMK A01 T00030000  RH  098%=      5-min Rain = 0
KCR2 141111Z 10005KT 00/00 A3014 RMK A01 T00030000  RH  098%=      5-min Rain = 0
KCR2 141112Z 10006KT 00/00 A3014 RMK A01 T00030000  RH  098%=      5-min Rain = 0
KCR2 141113Z 09005KT 00/00 A3015 RMK A01 T00040001  RH  098%=      5-min Rain = 0
KCR2 141114Z 09005KT 00/00 A3015 RMK A01 T00040001  RH  098%=      5-min Rain = 0
KCR2 141115Z 09005KT 00/00 A3015 RMK A01 T00040002  RH  098%=      5-min Rain = 0
KCR2 141116Z 09005KT 01/00 A3015 RMK A01 T00050002  RH  098%=      5-min Rain = 0
KCR2 141117Z 09005KT 01/00 A3015 RMK A01 T00050002  RH  098%=      5-min Rain = 0
KCR2 141118Z 08005KT 01/00 A3015 RMK A01 T00050002  RH  098%=      5-min Rain = 0
KCR2 141119Z 08006KT 01/00 A3015 RMK A01 T00050002  RH  098%=      5-min Rain = 0
KCR2 141120Z 09005KT 01/00 A3015 RMK A01 T00050003  RH  098%=      5-min Rain = 0
KCR2 141121Z 08005KT 01/00 A3015 RMK A01 T00050003  RH  098%=      5-min Rain = 0
KCR2 141122Z 08005KT 01/00 A3015 RMK A01 T00050003  RH  098%=      5-min Rain = 0
KCR2 141123Z 08005KT 01/00 A3015 RMK A01 T00050003  RH  098%=      5-min Rain = 0
KCR2 141124Z 08005KT 01/00 A3015 RMK A01 T00060003  RH  098%=      5-min Rain = 0
KCR2 141125Z 08006KT 01/00 A3015 RMK A01 T00050003  RH  098%=      5-min Rain = 0
KCR2 141126Z 08006KT 01/00 A3015 RMK A01 T00050003  RH  098%=      5-min Rain = 0
KCR2 141127Z 08005KT 01/00 A3015 RMK A01 T00050003  RH  098%=      5-min Rain = 0
KCR2 141128Z 08005KT 01/00 A3015 RMK A01 T00060003  RH  098%=      5-min Rain = 0
KCR2 141129Z 08005KT 01/00 A3015 RMK A01 T00050003  RH  098%=      5-min Rain = 0
KCR2 141130Z 08005KT 01/00 A3015 RMK A01 T00060003  RH  098%=      5-min Rain = 0
KCR2 141131Z 08005KT 01/00 A3015 RMK A01 T00060003  RH  098%=      5-min Rain = 0
KCR2 141132Z 08005KT 01/00 A3015 RMK A01 T00050003  RH  098%=      5-min Rain = 0
KCR2 141133Z 09005KT 01/00 A3015 RMK A01 T00060003  RH  098%=      5-min Rain = 0
KCR2 141134Z 08005KT 01/00 A3015 RMK A01 T00050003  RH  098%=      5-min Rain = 0
KCR2 141135Z 08005KT 01/00 A3015 RMK A01 T00060003  RH  098%=      5-min Rain = 0
KCR2 141136Z 08005KT 01/00 A3015 RMK A01 T00050003  RH  098%=      5-min Rain = 0
KCR2 141137Z 08005KT 01/00 A3016 RMK A01 T00060003  RH  098%=      5-min Rain = 0
KCR2 141138Z 07005KT 01/00 A3016 RMK A01 T00050003  RH  098%=      5-min Rain = 0
KCR2 141139Z 07005KT 01/00 A3016 RMK A01 T00060003  RH  098%=      5-min Rain = 0
KCR2 141140Z 07005KT 01/00 A3016 RMK A01 T00050003  RH  098%=      5-min Rain = 0
KCR2 141141Z 07005KT 01/00 A3016 RMK A01 T00050003  RH  098%=      5-min Rain = 0
KCR2 141142Z 06004KT 01/00 A3016 RMK A01 T00060003  RH  098%=      5-min Rain = 0
KCR2 141143Z 05004KT 01/00 A3016 RMK A01 T00050003  RH  098%=      5-min Rain = 0
KCR2 141144Z 06004KT 00/00 A3016 RMK A01 T00040002  RH  098%=      5-min Rain = 0
KCR2 141145Z 06005KT 00/00 A3016 RMK A01 T00040001  RH  098%=      5-min Rain = 0
KCR2 141146Z 06005KT 00/00 A3016 RMK A01 T00030001  RH  098%=      5-min Rain = 0
KCR2 141147Z 06004KT 00/00 A3016 RMK A01 T00030001  RH  098%=      5-min Rain = 0
KCR2 141148Z 06004KT 00/00 A3016 RMK A01 T00030000  RH  098%=      5-min Rain = 0
KCR2 141149Z 06004KT 00/00 A3016 RMK A01 T00030001  RH  099%=      5-min Rain = 0
KCR2 141150Z 06004KT 00/00 A3017 RMK A01 T00030000  RH  099%=      5-min Rain = 0
KCR2 141151Z 06004KT 00/00 A3017 RMK A01 T00030001  RH  099%=      5-min Rain = 0
KCR2 141152Z 07005KT 00/00 A3017 RMK A01 T00030001  RH  099%=      5-min Rain = 0
KCR2 141153Z 07004KT 00/00 A3017 RMK A01 T00030001  RH  099%=      5-min Rain = 0
KCR2 141154Z 07004KT 00/00 A3017 RMK A01 T00030001  RH  099%=      5-min Rain = 0
KCR2 141155Z 06004KT 00/00 A3017 RMK A01 T00030001  RH  099%=      5-min Rain = 0
KCR2 141156Z 06004KT 00/00 A3017 RMK A01 T00030001  RH  099%=      5-min Rain = 0
KCR2 141157Z 06004KT 00/00 A3017 RMK A01 T00030001  RH  099%=      5-min Rain = 0
KCR2 141158Z 06004KT 00/00 A3017 RMK A01 T00030001  RH  099%=      5-min Rain = 0
KCR2 141159Z 06004KT 00/00 A3017 RMK A01 T00030001  RH  099%=      5-min Rain = 0
KCR2 141200Z 05004KT 00/00 A3017 RMK A01 T00030001  RH  099%=      5-min Rain = 0
KCR2 141201Z 05005KT 00/00 A3017 RMK A01 T00030001  RH  099%=      5-min Rain = 0
KCR2 141202Z 04004KT 00/00 A3017 RMK A01 T00040002  RH  099%=      5-min Rain = 0
KCR2 141203Z 05005KT 00/00 A3018 RMK A01 T00030002  RH  099%=      5-min Rain = 0
KCR2 141204Z 05005KT 00/00 A3018 RMK A01 T00030002  RH  099%=      5-min Rain = 0
KCR2 141205Z 05005KT 00/00 A3018 RMK A01 T00040002  RH  099%=      5-min Rain = 0
KCR2 141206Z 06005KT 00/00 A3018 RMK A01 T00040002  RH  099%=      5-min Rain = 0
KCR2 141207Z 06005KT 00/00 A3018 RMK A01 T00040002  RH  099%=      5-min Rain = 0
KCR2 141208Z 07005KT 00/00 A3018 RMK A01 T00030001  RH  099%=      5-min Rain = 0
KCR2 141209Z 08005KT 00/00 A3018 RMK A01 T00030002  RH  099%=      5-min Rain = 0
KCR2 141210Z 08005KT 00/00 A3018 RMK A01 T00030002  RH  099%=      5-min Rain = 0
KCR2 141211Z 08005KT 00/00 A3018 RMK A01 T00030001  RH  099%=      5-min Rain = 0
KCR2 141212Z 08004KT 00/00 A3018 RMK A01 T00030001  RH  099%=      5-min Rain = 0
KCR2 141213Z 07004KT 00/00 A3018 RMK A01 T00030002  RH  099%=      5-min Rain = 0
KCR2 141214Z 06004KT 00/00 A3018 RMK A01 T00040002  RH  099%=      5-min Rain = 0
KCR2 141215Z 06004KT 00/00 A3018 RMK A01 T00040002  RH  099%=      5-min Rain = 0
KCR2 141216Z 05003KT 00/00 A3018 RMK A01 T00040002  RH  099%=      5-min Rain = 0
KCR2 141217Z 05003KT 00/00 A3018 RMK A01 T00040002  RH  099%=      5-min Rain = 0
KCR2 141218Z 05003KT 00/00 A3019 RMK A01 T00040002  RH  099%=      5-min Rain = 0
KCR2 141219Z 04003KT 00/00 A3019 RMK A01 T00040002  RH  099%=      5-min Rain = 0
KCR2 141220Z 04003KT 00/00 A3019 RMK A01 T00040002  RH  099%=      5-min Rain = 0
KCR2 141221Z 04003KT 00/00 A3019 RMK A01 T00040002  RH  099%=      5-min Rain = 0
KCR2 141222Z 04003KT 00/00 A3019 RMK A01 T00030002  RH  099%=      5-min Rain = 0
KCR2 141223Z 04003KT 00/00 A3019 RMK A01 T00030001  RH  099%=      5-min Rain = 0
KCR2 141224Z 03003KT 00/00 A3019 RMK A01 T00030001  RH  099%=      5-min Rain = 0
KCR2 141225Z 03002KT 00/00 A3019 RMK A01 T00020000  RH  099%=      5-min Rain = 0
KCR2 141226Z 03002KT 00/00 A3019 RMK A01 T000200-0  RH  099%=      5-min Rain = 0
KCR2 141227Z 03003KT 00/M00 A3019 RMK A01 T00011001  RH  099%=      5-min Rain = 0
KCR2 141228Z 04003KT 00/00 A3019 RMK A01 T000000-2  RH  099%=      5-min Rain = 0
KCR2 141229Z 04003KT 00/00 A3019 RMK A01 T00-000-2  RH  099%=      5-min Rain = 0
KCR2 141230Z 05003KT M00/M00 A3019 RMK A01 T10011003  RH  099%=      5-min Rain = 0
KCR2 141231Z 05002KT M00/M00 A3019 RMK A01 T10011003  RH  099%=      5-min Rain = 0
KCR2 141232Z 06002KT M00/M00 A3019 RMK A01 T10011003  RH  099%=      5-min Rain = 0
KCR2 141233Z 05002KT M00/M00 A3019 RMK A01 T10021004  RH  099%=      5-min Rain = 0
KCR2 141234Z 04002KT M00/M00 A302 RMK A01 T10021004  RH  099%=      5-min Rain = 0
KCR2 141235Z 03002KT M00/M00 A302 RMK A01 T10021004  RH  099%=      5-min Rain = 0
KCR2 141236Z 02002KT M00/M01 A302 RMK A01 T10031005  RH  099%=      5-min Rain = 0
KCR2 141237Z 02003KT M00/M01 A302 RMK A01 T10031005  RH  099%=      5-min Rain = 0
KCR2 141238Z 03003KT M00/M01 A302 RMK A01 T10041006  RH  099%=      5-min Rain = 0
KCR2 141239Z 03003KT M01/M01 A302 RMK A01 T10051006  RH  099%=      5-min Rain = 0
KCR2 141240Z 03002KT M01/M01 A302 RMK A01 T10051007  RH  099%=      5-min Rain = 0
KCR2 141241Z 02003KT M01/M01 A302 RMK A01 T10051007  RH  099%=      5-min Rain = 0
KCR2 141242Z 02003KT M01/M01 A302 RMK A01 T10051007  RH  099%=      5-min Rain = 0
KCR2 141243Z 02003KT M01/M01 A302 RMK A01 T10051007  RH  099%=      5-min Rain = 0
KCR2 141244Z 02003KT M01/M01 A302 RMK A01 T10051007  RH  099%=      5-min Rain = 0
KCR2 141245Z 02003KT M01/M01 A302 RMK A01 T10051007  RH  099%=      5-min Rain = 0
KCR2 141246Z 02003KT M01/M01 A302 RMK A01 T10051007  RH  099%=      5-min Rain = 0
KCR2 141247Z 02003KT M01/M01 A302 RMK A01 T10061008  RH  099%=      5-min Rain = 0
KCR2 141248Z 02002KT M01/M01 A302 RMK A01 T10071008  RH  099%=      5-min Rain = 0
KCR2 141249Z 02002KT M01/M01 A3021 RMK A01 T10081009  RH  099%=      5-min Rain = 0
KCR2 141250Z 02002KT M01/M01 A3021 RMK A01 T10081010  RH  099%=      5-min Rain = 0
KCR2 141251Z 01001KT M01/M01 A3021 RMK A01 T10091011  RH  099%=      5-min Rain = 0
KCR2 141252Z 01001KT M01/M01 A3021 RMK A01 T10091011  RH  099%=      5-min Rain = 0
KCR2 141253Z 02002KT M01/M01 A3021 RMK A01 T10091011  RH  099%=      5-min Rain = 0
KCR2 141254Z 03002KT M01/M01 A3021 RMK A01 T10101011  RH  099%=      5-min Rain = 0
KCR2 141255Z 03002KT M01/M01 A3021 RMK A01 T10091011  RH  099%=      5-min Rain = 0
KCR2 141256Z 04003KT M01/M01 A3021 RMK A01 T10091011  RH  099%=      5-min Rain = 0
KCR2 141257Z 04003KT M01/M01 A3021 RMK A01 T10091010  RH  099%=      5-min Rain = 0
KCR2 141258Z 04003KT M01/M01 A3021 RMK A01 T10081010  RH  099%=      5-min Rain = 0
KCR2 141259Z 04003KT M01/M01 A3021 RMK A01 T10081009  RH  099%=      5-min Rain = 0
KCR2 141300Z 04003KT M01/M01 A3021 RMK A01 T10081009  RH  099%=      5-min Rain = 0
KCR2 141301Z 04003KT M01/M01 A3021 RMK A01 T10081009  RH  099%=      5-min Rain = 0
KCR2 141302Z 04002KT M01/M01 A3021 RMK A01 T10081009  RH  099%=      5-min Rain = 0
KCR2 141303Z 05002KT M01/M01 A3021 RMK A01 T10081009  RH  099%=      5-min Rain = 0
KCR2 141304Z 05002KT M01/M01 A3021 RMK A01 T10081009  RH  099%=      5-min Rain = 0
KCR2 141305Z 06002KT M01/M01 A3021 RMK A01 T10081010  RH  099%=      5-min Rain = 0
KCR2 141306Z 06002KT M01/M01 A3022 RMK A01 T10081010  RH  099%=      5-min Rain = 0
KCR2 141307Z 06001KT M01/M01 A3022 RMK A01 T10091010  RH  099%=      5-min Rain = 0
KCR2 141308Z 06001KT M01/M01 A3022 RMK A01 T10091011  RH  099%=      5-min Rain = 0
KCR2 141309Z 07001KT M01/M01 A3022 RMK A01 T10091011  RH  099%=      5-min Rain = 0
KCR2 141310Z 05001KT M01/M01 A3022 RMK A01 T10091011  RH  099%=      5-min Rain = 0
KCR2 141311Z 06001KT M01/M01 A3022 RMK A01 T10091010  RH  099%=      5-min Rain = 0
KCR2 141312Z 05001KT M01/M01 A3022 RMK A01 T10091010  RH  099%=      5-min Rain = 0
KCR2 141313Z 05001KT M01/M01 A3022 RMK A01 T10091010  RH  099%=      5-min Rain = 0
KCR2 141314Z 05001KT M01/M01 A3022 RMK A01 T10091010  RH  099%=      5-min Rain = 0
KCR2 141315Z 04001KT M01/M01 A3022 RMK A01 T10091010  RH  099%=      5-min Rain = 0
KCR2 141316Z 04001KT M01/M01 A3022 RMK A01 T10091011  RH  099%=      5-min Rain = 0
KCR2 141317Z 04000KT M01/M01 A3022 RMK A01 T10101011  RH  099%=      5-min Rain = 0
KCR2 141318Z 00000KT M01/M01 A3022 RMK A01 T10101011  RH  099%=      5-min Rain = 0
KCR2 141319Z 00000KT M01/M01 A3022 RMK A01 T10101012  RH  099%=      5-min Rain = 0
KCR2 141320Z 00000KT M01/M01 A3022 RMK A01 T10101011  RH  099%=      5-min Rain = 0
KCR2 141321Z 00000KT M01/M01 A3023 RMK A01 T10101012  RH  099%=      5-min Rain = 0
KCR2 141322Z 21000KT M01/M01 A3023 RMK A01 T10101012  RH  099%=      5-min Rain = 0
KCR2 141323Z 00000KT M01/M01 A3023 RMK A01 T10101012  RH  099%=      5-min Rain = 0
KCR2 141324Z 22000KT M01/M01 A3023 RMK A01 T10111012  RH  099%=      5-min Rain = 0
KCR2 141325Z 22001KT M01/M01 A3023 RMK A01 T10101012  RH  099%=      5-min Rain = 0
KCR2 141326Z 23001KT M01/M01 A3023 RMK A01 T10101012  RH  099%=      5-min Rain = 0
KCR2 141327Z 22001KT M01/M01 A3023 RMK A01 T10111012  RH  099%=      5-min Rain = 0
KCR2 141328Z 24002KT M01/M01 A3023 RMK A01 T10091011  RH  099%=      5-min Rain = 0
KCR2 141329Z 23002KT M01/M01 A3023 RMK A01 T10091010  RH  099%=      5-min Rain = 0
KCR2 141330Z 22002KT M01/M01 A3023 RMK A01 T10091010  RH  099%=      5-min Rain = 0
KCR2 141331Z 24002KT M01/M01 A3023 RMK A01 T10081010  RH  099%=      5-min Rain = 0
KCR2 141332Z 25002KT M01/M01 A3023 RMK A01 T10081009  RH  099%=      5-min Rain = 0
KCR2 141333Z 26002KT M01/M01 A3023 RMK A01 T10071009  RH  099%=      5-min Rain = 0
KCR2 141334Z 27002KT M01/M01 A3023 RMK A01 T10071008  RH  099%=      5-min Rain = 0
KCR2 141335Z 27002KT M01/M01 A3023 RMK A01 T10071009  RH  099%=      5-min Rain = 0
KCR2 141336Z 28002KT M01/M01 A3024 RMK A01 T10071009  RH  099%=      5-min Rain = 0
KCR2 141337Z 27003KT M01/M01 A3024 RMK A01 T10071009  RH  099%=      5-min Rain = 0
KCR2 141338Z 27003KT M01/M01 A3024 RMK A01 T10081010  RH  099%=      5-min Rain = 0
KCR2 141339Z 26003KT M01/M01 A3024 RMK A01 T10081010  RH  099%=      5-min Rain = 0
KCR2 141340Z 26003KT M01/M01 A3024 RMK A01 T10091011  RH  099%=      5-min Rain = 0
KCR2 141341Z 25004KT M01/M01 A3024 RMK A01 T10091011  RH  099%=      5-min Rain = 0
KCR2 141342Z 26004KT M01/M01 A3024 RMK A01 T10101012  RH  099%=      5-min Rain = 0
KCR2 141343Z 26004KT M01/M01 A3024 RMK A01 T10101012  RH  099%=      5-min Rain = 0
KCR2 141344Z 26004KT M01/M01 A3025 RMK A01 T10101012  RH  099%=      5-min Rain = 0
KCR2 141345Z 26003KT M01/M01 A3025 RMK A01 T10101013  RH  099%=      5-min Rain = 0
KCR2 141346Z 27003KT M01/M01 A3025 RMK A01 T10111013  RH  099%=      5-min Rain = 0
KCR2 141347Z 27003KT M01/M01 A3025 RMK A01 T10101012  RH  099%=      5-min Rain = 0
KCR2 141348Z 26003KT M01/M01 A3025 RMK A01 T10101012  RH  099%=      5-min Rain = 0
KCR2 141349Z 26003KT M01/M01 A3025 RMK A01 T10101012  RH  099%=      5-min Rain = 0
KCR2 141350Z 27002KT M01/M01 A3025 RMK A01 T10091011  RH  099%=      5-min Rain = 0
KCR2 141351Z 28002KT M01/M01 A3025 RMK A01 T10091011  RH  099%=      5-min Rain = 0
KCR2 141352Z 29003KT M01/M01 A3025 RMK A01 T10091011  RH  099%=      5-min Rain = 0
KCR2 141353Z 29003KT M01/M01 A3025 RMK A01 T10091011  RH  099%=      5-min Rain = 0
KCR2 141354Z 29003KT M01/M01 A3025 RMK A01 T10081010  RH  098%=      5-min Rain = 0
KCR2 141355Z 30002KT M01/M01 A3025 RMK A01 T10081010  RH  098%=      5-min Rain = 0
KCR2 141356Z 29003KT M01/M01 A3025 RMK A01 T10081010  RH  098%=      5-min Rain = 0
KCR2 141357Z 29003KT M01/M01 A3025 RMK A01 T10081010  RH  098%=      5-min Rain = 0
KCR2 141358Z 29003KT M01/M01 A3025 RMK A01 T10071010  RH  098%=      5-min Rain = 0
KCR2 141359Z 28003KT M01/M01 A3025 RMK A01 T10071009  RH  098%=      5-min Rain = 0
KCR2 141400Z 28003KT M01/M01 A3026 RMK A01 T10061009  RH  098%=      5-min Rain = 0
KCR2 141401Z 28003KT M01/M01 A3026 RMK A01 T10071009  RH  098%=      5-min Rain = 0
KCR2 141402Z 28003KT M01/M01 A3026 RMK A01 T10061009  RH  098%=      5-min Rain = 0
KCR2 141403Z 28003KT M01/M01 A3026 RMK A01 T10061008  RH  098%=      5-min Rain = 0
KCR2 141404Z 28003KT M01/M01 A3026 RMK A01 T10061008  RH  098%=      5-min Rain = 0
KCR2 141405Z 28004KT M01/M01 A3026 RMK A01 T10061008  RH  098%=      5-min Rain = 0
KCR2 141406Z 29004KT M01/M01 A3026 RMK A01 T10051008  RH  098%=      5-min Rain = 0
KCR2 141407Z 28004KT M00/M01 A3026 RMK A01 T10041007  RH  098%=      5-min Rain = 0
KCR2 141408Z 28003KT M00/M01 A3027 RMK A01 T10041007  RH  098%=      5-min Rain = 0
KCR2 141409Z 28003KT M00/M01 A3027 RMK A01 T10041006  RH  098%=      5-min Rain = 0
KCR2 141410Z 27003KT M00/M01 A3027 RMK A01 T10031005  RH  098%=      5-min Rain = 0
KCR2 141411Z 27003KT M00/M01 A3027 RMK A01 T10031005  RH  098%=      5-min Rain = 0
KCR2 141412Z 27003KT M00/M01 A3027 RMK A01 T10021005  RH  098%=      5-min Rain = 0
KCR2 141413Z 27003KT M00/M00 A3027 RMK A01 T10011004  RH  098%=      5-min Rain = 0
KCR2 141414Z 28003KT M00/M00 A3027 RMK A01 T10011004  RH  098%=      5-min Rain = 0
KCR2 141415Z 27003KT 00/00 A3027 RMK A01 T00-000-3  RH  098%=      5-min Rain = 0
KCR2 141416Z 27003KT 00/M00 A3027 RMK A01 T00011002  RH  098%=      5-min Rain = 0
KCR2 141417Z 27003KT 00/M00 A3027 RMK A01 T00011002  RH  098%=      5-min Rain = 0
KCR2 141418Z 26002KT 00/M00 A3028 RMK A01 T00021001  RH  098%=      5-min Rain = 0
KCR2 141419Z 26003KT 00/M00 A3028 RMK A01 T00021001  RH  098%=      5-min Rain = 0
KCR2 141420Z 25003KT 00/M00 A3028 RMK A01 T00021001  RH  098%=      5-min Rain = 0
KCR2 141421Z 25003KT 00/00 A3028 RMK A01 T000300-0  RH  098%=      5-min Rain = 0
KCR2 141422Z 25003KT 00/00 A3028 RMK A01 T00030000  RH  098%=      5-min Rain = 0
KCR2 141423Z 24003KT 00/00 A3028 RMK A01 T00040001  RH  098%=      5-min Rain = 0
KCR2 141424Z 24003KT 00/00 A3028 RMK A01 T00040001  RH  098%=      5-min Rain = 0
KCR2 141425Z 25003KT 01/00 A3028 RMK A01 T00050002  RH  098%=      5-min Rain = 0
KCR2 141426Z 25003KT 01/00 A3029 RMK A01 T00060003  RH  098%=      5-min Rain = 0
KCR2 141427Z 24003KT 01/00 A3029 RMK A01 T00060003  RH  098%=      5-min Rain = 0
KCR2 141428Z 24003KT 01/00 A3029 RMK A01 T00070003  RH  098%=      5-min Rain = 0
KCR2 141429Z 24003KT 01/00 A3029 RMK A01 T00070004  RH  098%=      5-min Rain = 0
KCR2 141430Z 25002KT 01/01 A3029 RMK A01 T00090005  RH  098%=      5-min Rain = 0
KCR2 141431Z 25002KT 01/01 A3029 RMK A01 T00100006  RH  098%=      5-min Rain = 0
KCR2 141432Z 25002KT 01/01 A3029 RMK A01 T00100006  RH  098%=      5-min Rain = 0
KCR2 141433Z 23002KT 01/01 A3029 RMK A01 T00100006  RH  097%=      5-min Rain = 0
KCR2 141434Z 23002KT 01/01 A3029 RMK A01 T00100006  RH  097%=      5-min Rain = 0
KCR2 141435Z 22003KT 01/01 A3029 RMK A01 T00110007  RH  097%=      5-min Rain = 0
KCR2 141436Z 21003KT 01/01 A3029 RMK A01 T00130009  RH  097%=      5-min Rain = 0
KCR2 141437Z 21003KT 01/01 A3029 RMK A01 T00130009  RH  097%=      5-min Rain = 0
KCR2 141438Z 21002KT 02/01 A3029 RMK A01 T00150010  RH  097%=      5-min Rain = 0
KCR2 141439Z 20000KT 02/01 A3029 RMK A01 T00160012  RH  097%=      5-min Rain = 0
KCR2 141440Z 28000KT 02/01 A3029 RMK A01 T00170012  RH  097%=      5-min Rain = 0
KCR2 141441Z 24001KT 02/01 A3029 RMK A01 T00170013  RH  097%=      5-min Rain = 0
KCR2 141442Z 23001KT 02/01 A3029 RMK A01 T00180013  RH  097%=      5-min Rain = 0
KCR2 141443Z 23002KT 02/01 A3029 RMK A01 T00180013  RH  096%=      5-min Rain = 0
KCR2 141444Z 21001KT 02/02 A3029 RMK A01 T00200015  RH  096%=      5-min Rain = 0
KCR2 141445Z 21002KT 02/02 A3029 RMK A01 T00210016  RH  096%=      5-min Rain = 0
KCR2 141446Z 21002KT 02/02 A303 RMK A01 T00220016  RH  096%=      5-min Rain = 0
KCR2 141447Z 21002KT 02/02 A303 RMK A01 T00220016  RH  096%=      5-min Rain = 0
KCR2 141448Z 23002KT 02/02 A303 RMK A01 T00230016  RH  095%=      5-min Rain = 0
KCR2 141449Z 23001KT 02/02 A303 RMK A01 T00240017  RH  095%=      5-min Rain = 0
KCR2 141450Z 23001KT 02/02 A303 RMK A01 T00240016  RH  094%=      5-min Rain = 0
KCR2 141451Z 22001KT 02/02 A303 RMK A01 T00240015  RH  094%=      5-min Rain = 0
KCR2 141452Z 22000KT 02/02 A303 RMK A01 T00240015  RH  094%=      5-min Rain = 0
KCR2 141453Z 20001KT 03/02 A3031 RMK A01 T00260017  RH  094%=      5-min Rain = 0
KCR2 141454Z 21000KT 03/02 A3031 RMK A01 T00280019  RH  094%=      5-min Rain = 0
KCR2 141455Z 18001KT 03/02 A3031 RMK A01 T00280018  RH  093%=      5-min Rain = 0
KCR2 141456Z 17000KT 03/02 A3031 RMK A01 T00290018  RH  093%=      5-min Rain = 0
KCR2 141457Z 19000KT 03/02 A3031 RMK A01 T00310020  RH  092%=      5-min Rain = 0
KCR2 141458Z 19001KT 03/02 A3031 RMK A01 T00320020  RH  092%=      5-min Rain = 0
KCR2 141459Z 18000KT 03/02 A3031 RMK A01 T00320019  RH  091%=      5-min Rain = 0
KCR2 141500Z 18001KT 03/02 A3031 RMK A01 T00340021  RH  092%=      5-min Rain = 0
KCR2 141501Z 18002KT 04/02 A3031 RMK A01 T00350021  RH  091%=      5-min Rain = 0
KCR2 141502Z 17002KT 04/02 A3031 RMK A01 T00350019  RH  089%=      5-min Rain = 0
KCR2 141503Z 13001KT 04/02 A3032 RMK A01 T00350018  RH  089%=      5-min Rain = 0
KCR2 141504Z 08000KT 04/02 A3032 RMK A01 T00360019  RH  089%=      5-min Rain = 0
KCR2 141505Z 13000KT 04/02 A3032 RMK A01 T00380022  RH  090%=      5-min Rain = 0
KCR2 141506Z 13002KT 04/02 A3032 RMK A01 T00390024  RH  090%=      5-min Rain = 0
KCR2 141507Z 14002KT 04/02 A3032 RMK A01 T00400023  RH  089%=      5-min Rain = 0
KCR2 141508Z 13002KT 04/02 A3032 RMK A01 T00420024  RH  088%=      5-min Rain = 0
KCR2 141509Z 13002KT 04/02 A3032 RMK A01 T00430023  RH  087%=      5-min Rain = 0
KCR2 141510Z 14001KT 04/03 A3032 RMK A01 T00440025  RH  088%=      5-min Rain = 0
KCR2 141511Z 12001KT 05/03 A3032 RMK A01 T00450026  RH  087%=      5-min Rain = 0
KCR2 141512Z 13002KT 05/03 A3032 RMK A01 T00460025  RH  086%=      5-min Rain = 0
KCR2 141513Z 11002KT 05/03 A3032 RMK A01 T00480025  RH  085%=      5-min Rain = 0
KCR2 141514Z 11000KT 05/02 A3032 RMK A01 T00480024  RH  084%=      5-min Rain = 0
KCR2 141515Z 11001KT 05/03 A3032 RMK A01 T00500027  RH  085%=      5-min Rain = 0
KCR2 141516Z 13002KT 05/02 A3033 RMK A01 T00510024  RH  083%=      5-min Rain = 0
KCR2 141517Z 12002KT 05/02 A3032 RMK A01 T00510021  RH  081%=      5-min Rain = 0
KCR2 141518Z 07002KT 05/02 A3033 RMK A01 T00520022  RH  081%=      5-min Rain = 0
KCR2 141519Z 05005KT 05/02 A3033 RMK A01 T00530023  RH  081%=      5-min Rain = 0
KCR2 141520Z 06007KT 06/02 A3032 RMK A01 T00570024  RH  079%=      5-min Rain = 0
KCR2 141521Z 06009KT 06/02 A3032 RMK A01 T00640022  RH  075%=      5-min Rain = 0
KCR2 141522Z 05008KT 07/02 A3032 RMK A01 T00690021  RH  072%=      5-min Rain = 0
KCR2 141523Z 05008KT 07/02 A3032 RMK A01 T00710021  RH  070%=      5-min Rain = 0
KCR2 141524Z 04008KT 07/02 A3032 RMK A01 T00730020  RH  069%=      5-min Rain = 0
KCR2 141525Z 04010KT 07/02 A3033 RMK A01 T00730018  RH  068%=      5-min Rain = 0
KCR2 141526Z 05010KT 07/02 A3033 RMK A01 T00740016  RH  067%=      5-min Rain = 0
KCR2 141527Z 06013KT 08/02 A3033 RMK A01 T00750015  RH  066%=      5-min Rain = 0
KCR2 141528Z 04010KT 08/02 A3033 RMK A01 T00750015  RH  065%=      5-min Rain = 0
KCR2 141529Z 05011KT 08/02 A3033 RMK A01 T00770016  RH  065%=      5-min Rain = 0
KCR2 141530Z 06012KT 08/01 A3033 RMK A01 T00770013  RH  064%=      5-min Rain = 0
KCR2 141531Z 07013KT 08/01 A3033 RMK A01 T00770011  RH  063%=      5-min Rain = 0
KCR2 141532Z 05011KT 08/01 A3033 RMK A01 T00770011  RH  063%=      5-min Rain = 0
KCR2 141533Z 05011KT 08/01 A3033 RMK A01 T00770010  RH  062%=      5-min Rain = 0
KCR2 141534Z 05011KT 08/01 A3033 RMK A01 T00780010  RH  062%=      5-min Rain = 0
KCR2 141535Z 04011KT 08/01 A3033 RMK A01 T00780012  RH  063%=      5-min Rain = 0
KCR2 141536Z 05011KT 08/01 A3033 RMK A01 T00790012  RH  062%=      5-min Rain = 0
KCR2 141537Z 05011KT 08/01 A3033 RMK A01 T00800012  RH  062%=      5-min Rain = 0
KCR2 141538Z 05015KT 08/01 A3033 RMK A01 T00810011  RH  061%=      5-min Rain = 0
KCR2 141539Z 05014KT 08/01 A3033 RMK A01 T00810009  RH  060%=      5-min Rain = 0
KCR2 141540Z 06014KT 08/01 A3033 RMK A01 T00810008  RH  060%=      5-min Rain = 0
KCR2 141541Z 05015KT 08/01 A3033 RMK A01 T00810008  RH  060%=      5-min Rain = 0
KCR2 141542Z 06014KT 08/01 A3033 RMK A01 T00820008  RH  060%=      5-min Rain = 0
KCR2 141543Z 05012KT 08/01 A3033 RMK A01 T00820007  RH  059%=      5-min Rain = 0
KCR2 141544Z 06014KT 08/01 A3033 RMK A01 T00820007  RH  059%=      5-min Rain = 0
KCR2 141545Z 06015KT 08/01 A3033 RMK A01 T00820006  RH  059%=      5-min Rain = 0
KCR2 141546Z 05014KT 08/01 A3033 RMK A01 T00820006  RH  059%=      5-min Rain = 0
KCR2 141547Z 06013KT 08/01 A3033 RMK A01 T00830007  RH  059%=      5-min Rain = 0
KCR2 141548Z 07013KT 09/01 A3033 RMK A01 T00850008  RH  058%=      5-min Rain = 0
KCR2 141549Z 07014KT 09/01 A3034 RMK A01 T00860006  RH  057%=      5-min Rain = 0
KCR2 141550Z 07013KT 09/01 A3034 RMK A01 T00850005  RH  057%=      5-min Rain = 0
KCR2 141551Z 05012KT 09/01 A3034 RMK A01 T00860006  RH  057%=      5-min Rain = 0
KCR2 141552Z 05013KT 09/01 A3034 RMK A01 T00870005  RH  056%=      5-min Rain = 0
KCR2 141553Z 05012KT 09/00 A3034 RMK A01 T00870003  RH  056%=      5-min Rain = 0
KCR2 141554Z 06011KT 09/00 A3034 RMK A01 T00860004  RH  056%=      5-min Rain = 0
KCR2 141555Z 05010KT 09/01 A3034 RMK A01 T00870005  RH  056%=      5-min Rain = 0
KCR2 141556Z 05009KT 09/01 A3034 RMK A01 T00890007  RH  056%=      5-min Rain = 0
KCR2 141557Z 07012KT 09/01 A3034 RMK A01 T00910007  RH  056%=      5-min Rain = 0
KCR2 141558Z 06016KT 09/00 A3034 RMK A01 T00910003  RH  054%=      5-min Rain = 0
KCR2 141559Z 07014KT 09/00 A3034 RMK A01 T00890001  RH  054%=      5-min Rain = 0
KCR2 141600Z 06013KT 09/00 A3034 RMK A01 T00890001  RH  054%=      5-min Rain = 0
KCR2 141601Z 06011KT 09/00 A3034 RMK A01 T00890003  RH  055%=      5-min Rain = 0
KCR2 141602Z 05014KT 09/00 A3034 RMK A01 T00920003  RH  054%=      5-min Rain = 0
KCR2 141603Z 06013KT 09/00 A3034 RMK A01 T009100-0  RH  053%=      5-min Rain = 0
KCR2 141604Z 05013KT 09/00 A3034 RMK A01 T00910001  RH  053%=      5-min Rain = 0
KCR2 141605Z 04012KT 09/00 A3034 RMK A01 T00910001  RH  053%=      5-min Rain = 0
KCR2 141606Z 05010KT 09/00 A3034 RMK A01 T00920000  RH  053%=      5-min Rain = 0
KCR2 141607Z 05012KT 09/00 A3034 RMK A01 T00930002  RH  053%=      5-min Rain = 0
KCR2 141608Z 05013KT 09/00 A3034 RMK A01 T00940000  RH  052%=      5-min Rain = 0
KCR2 141609Z 06015KT 09/M00 A3034 RMK A01 T00941001  RH  051%=      5-min Rain = 0
KCR2 141610Z 05018KT 09/M00 A3034 RMK A01 T00931004  RH  050%=      5-min Rain = 0
KCR2 141611Z 05014G19KT 09/M01 A3034 RMK A01 T00921006  RH  050%=      5-min Rain = 0
KCR2 141612Z 06014KT 09/M01 A3034 RMK A01 T00901007  RH  051%=      5-min Rain = 0
KCR2 141613Z 06015KT 09/M01 A3034 RMK A01 T00911006  RH  051%=      5-min Rain = 0
KCR2 141614Z 06016KT 09/M01 A3034 RMK A01 T00911007  RH  050%=      5-min Rain = 0
KCR2 141615Z 06016KT 09/M01 A3035 RMK A01 T00921006  RH  050%=      5-min Rain = 0
KCR2 141616Z 06015KT 09/M01 A3035 RMK A01 T00931008  RH  049%=      5-min Rain = 0
KCR2 141617Z 05013KT 09/M01 A3035 RMK A01 T00921007  RH  050%=      5-min Rain = 0
KCR2 141618Z 04014KT 09/M01 A3035 RMK A01 T00931008  RH  049%=      5-min Rain = 0
KCR2 141619Z 05016KT 09/M01 A3035 RMK A01 T00941008  RH  049%=      5-min Rain = 0
KCR2 141620Z 05015KT 09/M01 A3035 RMK A01 T00941009  RH  049%=      5-min Rain = 0
KCR2 141621Z 05014KT 09/M01 A3035 RMK A01 T00931010  RH  049%=      5-min Rain = 0
KCR2 141622Z 06014KT 09/M01 A3035 RMK A01 T00941008  RH  049%=      5-min Rain = 0
KCR2 141623Z 07015KT 10/M01 A3035 RMK A01 T00961008  RH  048%=      5-min Rain = 0
KCR2 141624Z 05014KT 10/M01 A3035 RMK A01 T00971009  RH  048%=      5-min Rain = 0
KCR2 141625Z 05012KT 10/M01 A3035 RMK A01 T00961009  RH  048%=      5-min Rain = 0
KCR2 141626Z 06012KT 10/M01 A3036 RMK A01 T00971008  RH  048%=      5-min Rain = 0
KCR2 141627Z 05013KT 10/M01 A3036 RMK A01 T00981008  RH  048%=      5-min Rain = 0
KCR2 141628Z 05016KT 10/M01 A3036 RMK A01 T00991010  RH  047%=      5-min Rain = 0
KCR2 141629Z 06014KT 10/M01 A3036 RMK A01 T00971012  RH  046%=      5-min Rain = 0
KCR2 141630Z 05010KT 10/M01 A3036 RMK A01 T00961011  RH  047%=      5-min Rain = 0
KCR2 141631Z 05012KT 10/M01 A3036 RMK A01 T00981008  RH  047%=      5-min Rain = 0
KCR2 141632Z 05015KT 10/M01 A3036 RMK A01 T01011009  RH  046%=      5-min Rain = 0
KCR2 141633Z 06010KT 10/M01 A3036 RMK A01 T01011010  RH  046%=      5-min Rain = 0
KCR2 141634Z 05013KT 10/M01 A3036 RMK A01 T01021009  RH  046%=      5-min Rain = 0
KCR2 141635Z 06014KT 10/M01 A3036 RMK A01 T01011013  RH  045%=      5-min Rain = 0
KCR2 141636Z 05016KT 10/M01 A3036 RMK A01 T01001014  RH  045%=      5-min Rain = 0
KCR2 141637Z 05016KT 10/M02 A3036 RMK A01 T00991016  RH  045%=      5-min Rain = 0
KCR2 141638Z 05016KT 10/M02 A3036 RMK A01 T00991016  RH  045%=      5-min Rain = 0
KCR2 141639Z 05013KT 10/M02 A3036 RMK A01 T01001016  RH  044%=      5-min Rain = 0
KCR2 141640Z 06016KT 10/M02 A3036 RMK A01 T01011015  RH  044%=      5-min Rain = 0
KCR2 141641Z 05015KT 10/M02 A3036 RMK A01 T01021016  RH  044%=      5-min Rain = 0
KCR2 141642Z 05016KT 10/M02 A3036 RMK A01 T01011017  RH  044%=      5-min Rain = 0
KCR2 141643Z 05012KT 10/M02 A3037 RMK A01 T01001019  RH  043%=      5-min Rain = 0
KCR2 141644Z 05015KT 10/M02 A3036 RMK A01 T01021016  RH  044%=      5-min Rain = 0
KCR2 141645Z 07017KT 10/M02 A3036 RMK A01 T01031018  RH  043%=      5-min Rain = 0
KCR2 141646Z 07017KT 10/M02 A3036 RMK A01 T01021019  RH  043%=      5-min Rain = 0
KCR2 141647Z 07016KT 10/M02 A3036 RMK A01 T01021019  RH  043%=      5-min Rain = 0
KCR2 141648Z 05013KT 10/M02 A3037 RMK A01 T01021017  RH  043%=      5-min Rain = 0
KCR2 141649Z 04015KT 10/M02 A3036 RMK A01 T01041017  RH  043%=      5-min Rain = 0
KCR2 141650Z 05016KT 10/M02 A3036 RMK A01 T01041019  RH  042%=      5-min Rain = 0
KCR2 141651Z 05017KT 10/M02 A3036 RMK A01 T01031021  RH  042%=      5-min Rain = 0
KCR2 141652Z 06015KT 10/M02 A3036 RMK A01 T01031018  RH  043%=      5-min Rain = 0
KCR2 141653Z 06013KT 11/M02 A3037 RMK A01 T01061019  RH  042%=      5-min Rain = 0
KCR2 141654Z 06015KT 11/M02 A3036 RMK A01 T01051021  RH  041%=      5-min Rain = 0
KCR2 141655Z 06013KT 10/M02 A3036 RMK A01 T01031021  RH  042%=      5-min Rain = 0
KCR2 141656Z 06012KT 10/M02 A3036 RMK A01 T01041017  RH  043%=      5-min Rain = 0
KCR2 141657Z 05011KT 11/M02 A3036 RMK A01 T01101015  RH  042%=      5-min Rain = 0
KCR2 141658Z 06016KT 11/M02 A3036 RMK A01 T01111019  RH  040%=      5-min Rain = 0
KCR2 141659Z 06015KT 11/M02 A3036 RMK A01 T01071022  RH  040%=      5-min Rain = 0
KCR2 141700Z 06015KT 11/M02 A3037 RMK A01 T01051022  RH  041%=      5-min Rain = 0
KCR2 141701Z 07015KT 11/M02 A3036 RMK A01 T01071022  RH  041%=      5-min Rain = 0
KCR2 141702Z 07014KT 11/M02 A3036 RMK A01 T01071021  RH  041%=      5-min Rain = 0
KCR2 141703Z 06013KT 11/M02 A3036 RMK A01 T01081020  RH  041%=      5-min Rain = 0
KCR2 141704Z 06013KT 11/M02 A3036 RMK A01 T01091018  RH  041%=      5-min Rain = 0
KCR2 141705Z 07015KT 11/M02 A3036 RMK A01 T01111019  RH  040%=      5-min Rain = 0
KCR2 141706Z 07013KT 11/M02 A3036 RMK A01 T01091020  RH  040%=      5-min Rain = 0
KCR2 141707Z 07012KT 11/M02 A3036 RMK A01 T01091021  RH  040%=      5-min Rain = 0
KCR2 141708Z 07012KT 11/M02 A3036 RMK A01 T01091021  RH  040%=      5-min Rain = 0
KCR2 141709Z 07012KT 11/M02 A3036 RMK A01 T01101020  RH  040%=      5-min Rain = 0
KCR2 141710Z 07012KT 11/M02 A3036 RMK A01 T01121019  RH  040%=      5-min Rain = 0
KCR2 141711Z 05012KT 11/M02 A3036 RMK A01 T01141018  RH  040%=      5-min Rain = 0
KCR2 141712Z 05015KT 11/M02 A3036 RMK A01 T01131023  RH  039%=      5-min Rain = 0
KCR2 141713Z 04015KT 11/M03 A3036 RMK A01 T01101025  RH  039%=      5-min Rain = 0
KCR2 141714Z 04015KT 11/M02 A3036 RMK A01 T01081024  RH  039%=      5-min Rain = 0
KCR2 141715Z 04015KT 11/M02 A3036 RMK A01 T01081024  RH  040%=      5-min Rain = 0
KCR2 141716Z 04013KT 11/M03 A3036 RMK A01 T01071025  RH  040%=      5-min Rain = 0
KCR2 141717Z 05015KT 11/M02 A3036 RMK A01 T01081024  RH  040%=      5-min Rain = 0
KCR2 141718Z 05012KT 11/M02 A3036 RMK A01 T01101023  RH  039%=      5-min Rain = 0
KCR2 141719Z 04014KT 11/M02 A3036 RMK A01 T01111023  RH  039%=      5-min Rain = 0
KCR2 141720Z 04014KT 11/M03 A3036 RMK A01 T01111025  RH  039%=      5-min Rain = 0
KCR2 141721Z 05011KT 11/M02 A3036 RMK A01 T01111023  RH  039%=      5-min Rain = 0
KCR2 141722Z 05012G18KT 11/M02 A3036 RMK A01 T01121021  RH  039%=      5-min Rain = 0
KCR2 141723Z 06014KT 11/M02 A3036 RMK A01 T01131023  RH  039%=      5-min Rain = 0
KCR2 141724Z 05014KT 11/M02 A3036 RMK A01 T01141024  RH  038%=      5-min Rain = 0
KCR2 141725Z 06013KT 11/M03 A3036 RMK A01 T01141025  RH  038%=      5-min Rain = 0
KCR2 141726Z 05014KT 11/M03 A3036 RMK A01 T01141025  RH  038%=      5-min Rain = 0
KCR2 141727Z 05014KT 11/M03 A3036 RMK A01 T01141026  RH  038%=      5-min Rain = 0
KCR2 141728Z 04015KT 11/M03 A3036 RMK A01 T01131025  RH  038%=      5-min Rain = 0
KCR2 141729Z 04016KT 11/M03 A3036 RMK A01 T01141026  RH  038%=      5-min Rain = 0
KCR2 141730Z 05017KT 11/M03 A3036 RMK A01 T01141028  RH  037%=      5-min Rain = 0
KCR2 141731Z 05014KT 11/M03 A3036 RMK A01 T01121029  RH  037%=      5-min Rain = 0
KCR2 141732Z 05015KT 11/M03 A3036 RMK A01 T01131027  RH  038%=      5-min Rain = 0
KCR2 141733Z 05015KT 11/M03 A3036 RMK A01 T01131027  RH  037%=      5-min Rain = 0
KCR2 141734Z 05014KT 11/M03 A3036 RMK A01 T01141028  RH  037%=      5-min Rain = 0
KCR2 141735Z 05014KT 11/M03 A3036 RMK A01 T01141025  RH  038%=      5-min Rain = 0
KCR2 141736Z 05011KT 12/M02 A3036 RMK A01 T01151022  RH  038%=      5-min Rain = 0
KCR2 141737Z 04012KT 12/M02 A3036 RMK A01 T01151023  RH  038%=      5-min Rain = 0
KCR2 141738Z 05014KT 12/M02 A3036 RMK A01 T01161022  RH  038%=      5-min Rain = 0
KCR2 141739Z 05013KT 12/M02 A3036 RMK A01 T01171023  RH  037%=      5-min Rain = 0
KCR2 141740Z 05013KT 12/M03 A3036 RMK A01 T01161027  RH  037%=      5-min Rain = 0
KCR2 141741Z 06016KT 12/M03 A3036 RMK A01 T01151025  RH  038%=      5-min Rain = 0
KCR2 141742Z 06015KT 12/M02 A3036 RMK A01 T01181024  RH  037%=      5-min Rain = 0
KCR2 141743Z 06014KT 12/M03 A3036 RMK A01 T01171027  RH  037%=      5-min Rain = 0
KCR2 141744Z 06014KT 11/M03 A3036 RMK A01 T01141027  RH  037%=      5-min Rain = 0
KCR2 141745Z 07013KT 11/M03 A3036 RMK A01 T01141025  RH  038%=      5-min Rain = 0
KCR2 141746Z 07012KT 12/M02 A3036 RMK A01 T01151024  RH  038%=      5-min Rain = 0
KCR2 141747Z 06014KT 12/M02 A3036 RMK A01 T01161023  RH  038%=      5-min Rain = 0
KCR2 141748Z 07011KT 12/M03 A3036 RMK A01 T01151025  RH  037%=      5-min Rain = 0
KCR2 141749Z 05014KT 12/M02 A3036 RMK A01 T01151023  RH  038%=      5-min Rain = 0
KCR2 141750Z 05014KT 12/M03 A3036 RMK A01 T01161025  RH  037%=      5-min Rain = 0
KCR2 141751Z 05013KT 12/M03 A3036 RMK A01 T01151028  RH  037%=      5-min Rain = 0
KCR2 141752Z 05012KT 12/M03 A3036 RMK A01 T01151025  RH  038%=      5-min Rain = 0
KCR2 141753Z 04012KT 12/M02 A3036 RMK A01 T01191021  RH  038%=      5-min Rain = 0
KCR2 141754Z 05013KT 12/M02 A3036 RMK A01 T01201023  RH  037%=      5-min Rain = 0
KCR2 141755Z 05014KT 12/M03 A3036 RMK A01 T01201027  RH  036%=      5-min Rain = 0
KCR2 141756Z 05011KT 12/M03 A3036 RMK A01 T01181028  RH  036%=      5-min Rain = 0
KCR2 141757Z 04012KT 12/M03 A3036 RMK A01 T01191026  RH  036%=      5-min Rain = 0
KCR2 141758Z 03014KT 12/M03 A3036 RMK A01 T01211026  RH  036%=      5-min Rain = 0
KCR2 141759Z 04013KT 12/M03 A3036 RMK A01 T01191027  RH  036%=      5-min Rain = 0
KCR2 141800Z 03011KT 12/M02 A3036 RMK A01 T01191024  RH  037%=      5-min Rain = 0
KCR2 141801Z 04015KT 12/M03 A3035 RMK A01 T01211025  RH  036%=      5-min Rain = 0
KCR2 141802Z 04013KT 12/M03 A3035 RMK A01 T01201026  RH  036%=      5-min Rain = 0
KCR2 141803Z 04010KT 12/M03 A3035 RMK A01 T01181027  RH  036%=      5-min Rain = 0
KCR2 141804Z 05012KT 12/M03 A3035 RMK A01 T01181026  RH  037%=      5-min Rain = 0
KCR2 141805Z 05011KT 12/M03 A3035 RMK A01 T01191025  RH  037%=      5-min Rain = 0
KCR2 141806Z 05009KT 12/M02 A3035 RMK A01 T01221023  RH  037%=      5-min Rain = 0
KCR2 141807Z 03008KT 12/M02 A3035 RMK A01 T01231024  RH  036%=      5-min Rain = 0
KCR2 141808Z 04008KT 13/M02 A3035 RMK A01 T01261022  RH  036%=      5-min Rain = 0
KCR2 141809Z 05012KT 13/M02 A3035 RMK A01 T01281023  RH  035%=      5-min Rain = 0
KCR2 141810Z 04010KT 13/M03 A3035 RMK A01 T01251027  RH  035%=      5-min Rain = 0
KCR2 141811Z 05011KT 12/M03 A3035 RMK A01 T01221029  RH  035%=      5-min Rain = 0
KCR2 141812Z 05013KT 12/M03 A3035 RMK A01 T01231027  RH  035%=      5-min Rain = 0
KCR2 141813Z 04010KT 12/M03 A3035 RMK A01 T01231027  RH  035%=      5-min Rain = 0
KCR2 141814Z 04011KT 12/M03 A3035 RMK A01 T01241026  RH  035%=      5-min Rain = 0
KCR2 141815Z 04013KT 13/M03 A3035 RMK A01 T01261026  RH  035%=      5-min Rain = 0
KCR2 141816Z 03012KT 12/M03 A3035 RMK A01 T01241027  RH  035%=      5-min Rain = 0
KCR2 141817Z 04009KT 12/M03 A3035 RMK A01 T01241025  RH  035%=      5-min Rain = 0
KCR2 141818Z 05012KT 13/M02 A3035 RMK A01 T01281024  RH  035%=      5-min Rain = 0
KCR2 141819Z 06012KT 13/M03 A3035 RMK A01 T01271027  RH  034%=      5-min Rain = 0
KCR2 141820Z 06012KT 13/M03 A3035 RMK A01 T01261027  RH  034%=      5-min Rain = 0
KCR2 141821Z 05011KT 13/M03 A3035 RMK A01 T01251029  RH  034%=      5-min Rain = 0
KCR2 141822Z 07011KT 12/M03 A3035 RMK A01 T01241028  RH  034%=      5-min Rain = 0
KCR2 141823Z 06010KT 12/M03 A3035 RMK A01 T01221030  RH  034%=      5-min Rain = 0
KCR2 141824Z 05009KT 12/M03 A3035 RMK A01 T01211030  RH  035%=      5-min Rain = 0
KCR2 141825Z 06013KT 13/M03 A3035 RMK A01 T01251028  RH  034%=      5-min Rain = 0
KCR2 141826Z 05013KT 13/M03 A3035 RMK A01 T01261032  RH  033%=      5-min Rain = 0
KCR2 141827Z 05010KT 12/M03 A3035 RMK A01 T01241032  RH  033%=      5-min Rain = 0
KCR2 141828Z 05011KT 13/M03 A3035 RMK A01 T01261030  RH  034%=      5-min Rain = 0
KCR2 141829Z 05014KT 13/M03 A3035 RMK A01 T01261033  RH  033%=      5-min Rain = 0
KCR2 141830Z 06012KT 13/M04 A3035 RMK A01 T01251035  RH  033%=      5-min Rain = 0
KCR2 141831Z 06011KT 13/M03 A3035 RMK A01 T01251033  RH  033%=      5-min Rain = 0
KCR2 141832Z 05011KT 13/M03 A3035 RMK A01 T01261032  RH  033%=      5-min Rain = 0
KCR2 141833Z 05011KT 13/M03 A3035 RMK A01 T01281033  RH  032%=      5-min Rain = 0
KCR2 141834Z 04013KT 13/M04 A3035 RMK A01 T01291035  RH  032%=      5-min Rain = 0
KCR2 141835Z 04011KT 13/M03 A3035 RMK A01 T01291034  RH  032%=      5-min Rain = 0
KCR2 141836Z 04011G16KT 13/M03 A3035 RMK A01 T01311032  RH  032%=      5-min Rain = 0
KCR2 141837Z 04010KT 13/M03 A3035 RMK A01 T01311034  RH  032%=      5-min Rain = 0
KCR2 141838Z 02011KT 13/M03 A3035 RMK A01 T01301033  RH  032%=      5-min Rain = 0
KCR2 141839Z 03012G17KT 13/M04 A3034 RMK A01 T01311035  RH  031%=      5-min Rain = 0
KCR2 141840Z 04014KT 13/M04 A3035 RMK A01 T01321035  RH  031%=      5-min Rain = 0
KCR2 141841Z 04010KT 13/M04 A3035 RMK A01 T01311037  RH  031%=      5-min Rain = 0
KCR2 141842Z 02013KT 13/M03 A3035 RMK A01 T01311033  RH  032%=      5-min Rain = 0
KCR2 141843Z 03013KT 13/M03 A3034 RMK A01 T01331033  RH  032%=      5-min Rain = 0
KCR2 141844Z 04012KT 13/M03 A3035 RMK A01 T01331034  RH  031%=      5-min Rain = 0
KCR2 141845Z 03010KT 13/M03 A3035 RMK A01 T01331032  RH  032%=      5-min Rain = 0
KCR2 141846Z 02011KT 13/M03 A3035 RMK A01 T01341033  RH  031%=      5-min Rain = 0
KCR2 141847Z 02010G15KT 13/M04 A3035 RMK A01 T01301036  RH  031%=      5-min Rain = 0
KCR2 141848Z 02014G19KT 13/M03 A3034 RMK A01 T01291033  RH  032%=      5-min Rain = 0
KCR2 141849Z 03016KT 13/M03 A3034 RMK A01 T01301031  RH  033%=      5-min Rain = 0
KCR2 141850Z 04017KT 13/M03 A3034 RMK A01 T01331030  RH  032%=      5-min Rain = 0
KCR2 141851Z 04015KT 13/M03 A3034 RMK A01 T01311031  RH  032%=      5-min Rain = 0
KCR2 141852Z 05014KT 13/M03 A3034 RMK A01 T01301031  RH  032%=      5-min Rain = 0
KCR2 141853Z 04017KT 13/M03 A3034 RMK A01 T01311031  RH  032%=      5-min Rain = 0
KCR2 141854Z 04013KT 13/M03 A3034 RMK A01 T01321030  RH  032%=      5-min Rain = 0
KCR2 141855Z 03014KT 13/M03 A3034 RMK A01 T01341031  RH  032%=      5-min Rain = 0
KCR2 141856Z 04017KT 13/M03 A3034 RMK A01 T01321032  RH  032%=      5-min Rain = 0
KCR2 141857Z 03017KT 13/M03 A3034 RMK A01 T01301030  RH  033%=      5-min Rain = 0
KCR2 141858Z 04017KT 13/M03 A3034 RMK A01 T01291031  RH  033%=      5-min Rain = 0
KCR2 141859Z 04016KT 13/M03 A3034 RMK A01 T01281031  RH  033%=      5-min Rain = 0
KCR2 141900Z 04012KT 13/M03 A3034 RMK A01 T01271032  RH  033%=      5-min Rain = 0
KCR2 141901Z 04013KT 13/M03 A3034 RMK A01 T01291029  RH  033%=      5-min Rain = 0
KCR2 141902Z 05012KT 13/M03 A3034 RMK A01 T01311030  RH  033%=      5-min Rain = 0
KCR2 141903Z 06016KT 13/M03 A3034 RMK A01 T01321028  RH  033%=      5-min Rain = 0
KCR2 141904Z 06014KT 13/M03 A3034 RMK A01 T01301029  RH  033%=      5-min Rain = 0
KCR2 141905Z 07014KT 13/M03 A3034 RMK A01 T01291029  RH  033%=      5-min Rain = 0
KCR2 141906Z 06014KT 13/M03 A3034 RMK A01 T01291029  RH  033%=      5-min Rain = 0
KCR2 141907Z 06012KT 13/M03 A3034 RMK A01 T01291031  RH  033%=      5-min Rain = 0
KCR2 141908Z 05014G21KT 13/M03 A3034 RMK A01 T01281029  RH  033%=      5-min Rain = 0
KCR2 141909Z 05017KT 13/M03 A3034 RMK A01 T01301026  RH  034%=      5-min Rain = 0
KCR2 141910Z 04014KT 13/M03 A3034 RMK A01 T01311025  RH  034%=      5-min Rain = 0
KCR2 141911Z 04013KT 13/M03 A3034 RMK A01 T01321026  RH  033%=      5-min Rain = 0
KCR2 141912Z 05013KT 13/M03 A3034 RMK A01 T01331027  RH  033%=      5-min Rain = 0
KCR2 141913Z 04014KT 13/M03 A3034 RMK A01 T01311028  RH  033%=      5-min Rain = 0
KCR2 141914Z 04011KT 13/M03 A3034 RMK A01 T01291029  RH  033%=      5-min Rain = 0
KCR2 141915Z 05013KT 13/M03 A3034 RMK A01 T01301026  RH  034%=      5-min Rain = 0
KCR2 141916Z 04010KT 13/M02 A3034 RMK A01 T01331024  RH  034%=      5-min Rain = 0
KCR2 141917Z 04010KT 14/M02 A3034 RMK A01 T01361023  RH  033%=      5-min Rain = 0
KCR2 141918Z 05011KT 14/M02 A3034 RMK A01 T01361024  RH  033%=      5-min Rain = 0
KCR2 141919Z 04011KT 13/M02 A3034 RMK A01 T01341024  RH  033%=      5-min Rain = 0
KCR2 141920Z 03011KT 14/M02 A3034 RMK A01 T01351023  RH  033%=      5-min Rain = 0
KCR2 141921Z 04015KT 14/M03 A3034 RMK A01 T01361025  RH  033%=      5-min Rain = 0
KCR2 141922Z 05013KT 14/M03 A3034 RMK A01 T01351025  RH  033%=      5-min Rain = 0
KCR2 141923Z 03013KT 14/M03 A3034 RMK A01 T01361025  RH  033%=      5-min Rain = 0
KCR2 141924Z 03011KT 13/M03 A3034 RMK A01 T01341027  RH  033%=      5-min Rain = 0
KCR2 141925Z 02015KT 13/M03 A3034 RMK A01 T01341026  RH  033%=      5-min Rain = 0
KCR2 141926Z 03012KT 13/M03 A3034 RMK A01 T01331027  RH  033%=      5-min Rain = 0
KCR2 141927Z 03010KT 13/M03 A3034 RMK A01 T01321026  RH  033%=      5-min Rain = 0
KCR2 141928Z 04011KT 13/M03 A3034 RMK A01 T01341026  RH  033%=      5-min Rain = 0
KCR2 141929Z 06015KT 14/M03 A3034 RMK A01 T01351025  RH  033%=      5-min Rain = 0
KCR2 141930Z 05015KT 14/M03 A3034 RMK A01 T01361025  RH  033%=      5-min Rain = 0
KCR2 141931Z 06013KT 13/M03 A3034 RMK A01 T01331027  RH  033%=      5-min Rain = 0
KCR2 141932Z 06014G19KT 13/M03 A3034 RMK A01 T01311027  RH  033%=      5-min Rain = 0
KCR2 141933Z 04016KT 13/M03 A3034 RMK A01 T01331026  RH  033%=      5-min Rain = 0
KCR2 141934Z 04017KT 13/M03 A3034 RMK A01 T01341028  RH  032%=      5-min Rain = 0
KCR2 141935Z 05011KT 13/M03 A3034 RMK A01 T01301029  RH  033%=      5-min Rain = 0
KCR2 141936Z 05011KT 13/M03 A3034 RMK A01 T01291028  RH  034%=      5-min Rain = 0
KCR2 141937Z 04014KT 13/M03 A3034 RMK A01 T01321025  RH  034%=      5-min Rain = 0
KCR2 141938Z 05012KT 13/M03 A3034 RMK A01 T01331026  RH  033%=      5-min Rain = 0
KCR2 141939Z 05015KT 13/M03 A3034 RMK A01 T01341026  RH  033%=      5-min Rain = 0
KCR2 141940Z 05012KT 13/M03 A3034 RMK A01 T01341025  RH  033%=      5-min Rain = 0
KCR2 141941Z 05015KT 14/M03 A3034 RMK A01 T01351026  RH  033%=      5-min Rain = 0
KCR2 141942Z 06015KT 13/M03 A3034 RMK A01 T01341027  RH  033%=      5-min Rain = 0
KCR2 141943Z 06012KT 13/M03 A3034 RMK A01 T01301027  RH  033%=      5-min Rain = 0
KCR2 141944Z 06014KT 13/M03 A3034 RMK A01 T01301026  RH  034%=      5-min Rain = 0
KCR2 141945Z 05012KT 13/M03 A3033 RMK A01 T01311026  RH  034%=      5-min Rain = 0
KCR2 141946Z 05011KT 13/M03 A3033 RMK A01 T01311025  RH  034%=      5-min Rain = 0
KCR2 141947Z 02012KT 13/M02 A3033 RMK A01 T01331023  RH  034%=      5-min Rain = 0
KCR2 141948Z 03011KT 13/M03 A3033 RMK A01 T01341025  RH  033%=      5-min Rain = 0
KCR2 141949Z 03010KT 14/M03 A3033 RMK A01 T01351026  RH  033%=      5-min Rain = 0
KCR2 141950Z 03011KT 14/M02 A3033 RMK A01 T01351022  RH  034%=      5-min Rain = 0
KCR2 141951Z 03014KT 14/M02 A3033 RMK A01 T01401022  RH  033%=      5-min Rain = 0
KCR2 141952Z 03012KT 14/M02 A3033 RMK A01 T01391024  RH  032%=      5-min Rain = 0
KCR2 141953Z 03011KT 14/M02 A3033 RMK A01 T01361024  RH  033%=      5-min Rain = 0
KCR2 141954Z 03014KT 14/M02 A3033 RMK A01 T01371023  RH  033%=      5-min Rain = 0
KCR2 141955Z 02012KT 14/M02 A3033 RMK A01 T01371022  RH  033%=      5-min Rain = 0
KCR2 141956Z 02012KT 14/M02 A3033 RMK A01 T01371023  RH  033%=      5-min Rain = 0
KCR2 141957Z 05010KT 14/M02 A3033 RMK A01 T01351022  RH  034%=      5-min Rain = 0
KCR2 141958Z 05013KT 14/M02 A3033 RMK A01 T01361021  RH  034%=      5-min Rain = 0
KCR2 141959Z 04013G19KT 14/M02 A3033 RMK A01 T01371020  RH  034%=      5-min Rain = 0
KCR2 142000Z 04015KT 14/M02 A3033 RMK A01 T01381020  RH  033%=      5-min Rain = 0
KCR2 142001Z 04018KT 14/M02 A3033 RMK A01 T01371020  RH  034%=      5-min Rain = 0
KCR2 142002Z 04016KT 14/M02 A3033 RMK A01 T01351020  RH  034%=      5-min Rain = 0
KCR2 142003Z 04015KT 14/M02 A3033 RMK A01 T01351018  RH  035%=      5-min Rain = 0
KCR2 142004Z 03016KT 14/M02 A3033 RMK A01 T01361019  RH  034%=      5-min Rain = 0
KCR2 142005Z 03014KT 14/M02 A3033 RMK A01 T01351020  RH  034%=      5-min Rain = 0
KCR2 142006Z 03015KT 14/M02 A3033 RMK A01 T01351020  RH  034%=      5-min Rain = 0
KCR2 142007Z 04013KT 14/M02 A3033 RMK A01 T01351019  RH  034%=      5-min Rain = 0
KCR2 142008Z 04012KT 14/M02 A3033 RMK A01 T01361019  RH  034%=      5-min Rain = 0
KCR2 142009Z 04012KT 14/M02 A3033 RMK A01 T01361018  RH  034%=      5-min Rain = 0
KCR2 142010Z 03012KT 14/M02 A3033 RMK A01 T01381018  RH  034%=      5-min Rain = 0
KCR2 142011Z 05011KT 14/M02 A3033 RMK A01 T01371019  RH  034%=      5-min Rain = 0
KCR2 142012Z 05014KT 14/M02 A3033 RMK A01 T01371019  RH  034%=      5-min Rain = 0
KCR2 142013Z 05015G20KT 14/M02 A3033 RMK A01 T01361020  RH  034%=      5-min Rain = 0
KCR2 142014Z 04018KT 14/M02 A3033 RMK A01 T01351019  RH  034%=      5-min Rain = 0
KCR2 142015Z 04014KT 14/M02 A3033 RMK A01 T01351019  RH  034%=      5-min Rain = 0
KCR2 142016Z 04012KT 14/M02 A3033 RMK A01 T01371017  RH  034%=      5-min Rain = 0
KCR2 142017Z 03011KT 14/M02 A3033 RMK A01 T01401016  RH  034%=      5-min Rain = 0
KCR2 142018Z 04012KT 14/M02 A3033 RMK A01 T01401019  RH  033%=      5-min Rain = 0
KCR2 142019Z 06014G19KT 14/M02 A3033 RMK A01 T01361020  RH  034%=      5-min Rain = 0
KCR2 142020Z 04013KT 14/M02 A3033 RMK A01 T01351019  RH  034%=      5-min Rain = 0
KCR2 142021Z 06015KT 14/M02 A3033 RMK A01 T01351019  RH  034%=      5-min Rain = 0
KCR2 142022Z 05013KT 13/M02 A3033 RMK A01 T01321021  RH  035%=      5-min Rain = 0
KCR2 142023Z 05011KT 13/M02 A3033 RMK A01 T01321019  RH  035%=      5-min Rain = 0
KCR2 142024Z 04013KT 14/M02 A3033 RMK A01 T01351018  RH  035%=      5-min Rain = 0
KCR2 142025Z 05014KT 14/M02 A3033 RMK A01 T01361018  RH  034%=      5-min Rain = 0
KCR2 142026Z 05012KT 14/M02 A3033 RMK A01 T01351019  RH  034%=      5-min Rain = 0
KCR2 142027Z 07012KT 13/M02 A3033 RMK A01 T01341019  RH  035%=      5-min Rain = 0
KCR2 142028Z 07013KT 13/M02 A3032 RMK A01 T01331019  RH  035%=      5-min Rain = 0
KCR2 142029Z 05015KT 13/M02 A3032 RMK A01 T01341019  RH  035%=      5-min Rain = 0
KCR2 142030Z 04018KT 14/M02 A3032 RMK A01 T01361019  RH  034%=      5-min Rain = 0
KCR2 142031Z 04015KT 14/M02 A3032 RMK A01 T01351020  RH  034%=      5-min Rain = 0
KCR2 142032Z 04014KT 13/M02 A3033 RMK A01 T01321021  RH  034%=      5-min Rain = 0
KCR2 142033Z 05011G16KT 13/M02 A3033 RMK A01 T01321020  RH  035%=      5-min Rain = 0
KCR2 142034Z 07009KT 13/M02 A3032 RMK A01 T01321020  RH  035%=      5-min Rain = 0
KCR2 142035Z 06008KT 13/M02 A3032 RMK A01 T01331020  RH  035%=      5-min Rain = 0
KCR2 142036Z 06011G16KT 13/M02 A3032 RMK A01 T01341018  RH  035%=      5-min Rain = 0
KCR2 142037Z 06016KT 14/M02 A3032 RMK A01 T01361018  RH  034%=      5-min Rain = 0
KCR2 142038Z 06015KT 14/M02 A3032 RMK A01 T01361020  RH  034%=      5-min Rain = 0
KCR2 142039Z 06012KT 13/M02 A3032 RMK A01 T01341020  RH  034%=      5-min Rain = 0
KCR2 142040Z 06012KT 13/M02 A3032 RMK A01 T01331020  RH  035%=      5-min Rain = 0
KCR2 142041Z 04014KT 13/M02 A3032 RMK A01 T01341020  RH  034%=      5-min Rain = 0
KCR2 142042Z 06015KT 14/M02 A3032 RMK A01 T01351019  RH  034%=      5-min Rain = 0
KCR2 142043Z 07014KT 13/M02 A3032 RMK A01 T01341020  RH  034%=      5-min Rain = 0
KCR2 142044Z 07014KT 13/M02 A3032 RMK A01 T01321020  RH  035%=      5-min Rain = 0
KCR2 142045Z 06013KT 13/M02 A3032 RMK A01 T01321020  RH  035%=      5-min Rain = 0
KCR2 142046Z 06012KT 13/M02 A3032 RMK A01 T01321019  RH  035%=      5-min Rain = 0
KCR2 142047Z 05012KT 13/M02 A3032 RMK A01 T01321018  RH  035%=      5-min Rain = 0
KCR2 142048Z 04010KT 13/M02 A3032 RMK A01 T01331019  RH  035%=      5-min Rain = 0
KCR2 142049Z 04012KT 13/M02 A3032 RMK A01 T01341018  RH  035%=      5-min Rain = 0
KCR2 142050Z 05012KT 14/M02 A3032 RMK A01 T01361019  RH  034%=      5-min Rain = 0
KCR2 142051Z 06011KT 14/M02 A3032 RMK A01 T01361019  RH  034%=      5-min Rain = 0
KCR2 142052Z 05014G19KT 14/M02 A3032 RMK A01 T01351019  RH  034%=      5-min Rain = 0
KCR2 142053Z 06018KT 14/M02 A3032 RMK A01 T01361019  RH  034%=      5-min Rain = 0
KCR2 142054Z 04015KT 14/M02 A3032 RMK A01 T01351021  RH  034%=      5-min Rain = 0
KCR2 142055Z 04013KT 13/M02 A3033 RMK A01 T01331021  RH  034%=      5-min Rain = 0
KCR2 142056Z 04011KT 13/M02 A3033 RMK A01 T01321021  RH  035%=      5-min Rain = 0
KCR2 142057Z 04013KT 13/M02 A3032 RMK A01 T01321020  RH  035%=      5-min Rain = 0
KCR2 142058Z 04015KT 13/M02 A3032 RMK A01 T01341019  RH  034%=      5-min Rain = 0
KCR2 142059Z 03013KT 14/M02 A3032 RMK A01 T01351020  RH  034%=      5-min Rain = 0
KCR2 142100Z 04017KT 14/M02 A3032 RMK A01 T01351021  RH  034%=      5-min Rain = 0
KCR2 142101Z 04014KT 13/M02 A3032 RMK A01 T01331021  RH  034%=      5-min Rain = 0
KCR2 142102Z 04016KT 13/M02 A3032 RMK A01 T01331021  RH  034%=      5-min Rain = 0
KCR2 142103Z 03014KT 13/M02 A3032 RMK A01 T01331021  RH  035%=      5-min Rain = 0
KCR2 142104Z 04014KT 13/M02 A3032 RMK A01 T01331020  RH  035%=      5-min Rain = 0
KCR2 142105Z 06014KT 13/M02 A3032 RMK A01 T01331020  RH  035%=      5-min Rain = 0
KCR2 142106Z 05016KT 13/M02 A3032 RMK A01 T01341019  RH  035%=      5-min Rain = 0
KCR2 142107Z 05016KT 14/M02 A3032 RMK A01 T01351020  RH  034%=      5-min Rain = 0
KCR2 142108Z 05014KT 13/M02 A3033 RMK A01 T01331021  RH  034%=      5-min Rain = 0
KCR2 142109Z 05013KT 13/M02 A3033 RMK A01 T01331021  RH  035%=      5-min Rain = 0
KCR2 142110Z 04010KT 13/M02 A3033 RMK A01 T01321020  RH  035%=      5-min Rain = 0
KCR2 142111Z 04011KT 13/M02 A3032 RMK A01 T01321021  RH  035%=      5-min Rain = 0
KCR2 142112Z 05011G17KT 13/M02 A3032 RMK A01 T01331020  RH  035%=      5-min Rain = 0
KCR2 142113Z 05016KT 13/M02 A3032 RMK A01 T01341021  RH  034%=      5-min Rain = 0
KCR2 142114Z 04014KT 13/M02 A3032 RMK A01 T01331022  RH  034%=      5-min Rain = 0
KCR2 142115Z 03012KT 13/M02 A3033 RMK A01 T01341021  RH  034%=      5-min Rain = 0
KCR2 142116Z 04012KT 13/M02 A3033 RMK A01 T01341021  RH  034%=      5-min Rain = 0
KCR2 142117Z 05012KT 14/M02 A3033 RMK A01 T01351021  RH  034%=      5-min Rain = 0
KCR2 142118Z 05013KT 14/M02 A3033 RMK A01 T01351022  RH  034%=      5-min Rain = 0
KCR2 142119Z 05012KT 14/M02 A3033 RMK A01 T01351022  RH  034%=      5-min Rain = 0
KCR2 142120Z 03010KT 13/M02 A3033 RMK A01 T01331023  RH  034%=      5-min Rain = 0
KCR2 142121Z 04011KT 13/M02 A3032 RMK A01 T01321022  RH  034%=      5-min Rain = 0
KCR2 142122Z 05012KT 14/M02 A3033 RMK A01 T01351020  RH  034%=      5-min Rain = 0
KCR2 142123Z 03015G20KT 14/M02 A3033 RMK A01 T01361022  RH  033%=      5-min Rain = 0
KCR2 142124Z 05014KT 14/M02 A3033 RMK A01 T01361021  RH  034%=      5-min Rain = 0
KCR2 142125Z 06012KT 14/M02 A3033 RMK A01 T01381019  RH  034%=      5-min Rain = 0
KCR2 142126Z 05013KT 14/M02 A3033 RMK A01 T01391020  RH  033%=      5-min Rain = 0
KCR2 142127Z 05011KT 14/M02 A3033 RMK A01 T01361023  RH  033%=      5-min Rain = 0
KCR2 142128Z 05009KT 14/M02 A3033 RMK A01 T01351022  RH  034%=      5-min Rain = 0
KCR2 142129Z 03011G16KT 13/M02 A3033 RMK A01 T01341022  RH  034%=      5-min Rain = 0
KCR2 142130Z 05012KT 13/M02 A3033 RMK A01 T01341022  RH  034%=      5-min Rain = 0
KCR2 142131Z 05013KT 14/M02 A3033 RMK A01 T01361020  RH  034%=      5-min Rain = 0
KCR2 142132Z 06013KT 14/M02 A3033 RMK A01 T01381020  RH  033%=      5-min Rain = 0
KCR2 142133Z 05010KT 14/M02 A3033 RMK A01 T01371022  RH  033%=      5-min Rain = 0
KCR2 142134Z 05010KT 14/M02 A3033 RMK A01 T01361020  RH  034%=      5-min Rain = 0
KCR2 142135Z 04012KT 14/M02 A3033 RMK A01 T01381020  RH  034%=      5-min Rain = 0
KCR2 142136Z 04011KT 14/M02 A3033 RMK A01 T01361022  RH  033%=      5-min Rain = 0
KCR2 142137Z 05010KT 14/M02 A3033 RMK A01 T01351022  RH  034%=      5-min Rain = 0
KCR2 142138Z 05011KT 14/M02 A3033 RMK A01 T01361021  RH  034%=      5-min Rain = 0
KCR2 142139Z 05013KT 14/M02 A3033 RMK A01 T01371021  RH  033%=      5-min Rain = 0
KCR2 142140Z 05011KT 14/M02 A3033 RMK A01 T01371021  RH  033%=      5-min Rain = 0
KCR2 142141Z 06011KT 14/M02 A3033 RMK A01 T01371021  RH  034%=      5-min Rain = 0
KCR2 142142Z 06016KT 14/M02 A3033 RMK A01 T01361022  RH  033%=      5-min Rain = 0
KCR2 142143Z 05015KT 13/M02 A3033 RMK A01 T01341023  RH  034%=      5-min Rain = 0
KCR2 142144Z 06013KT 13/M02 A3033 RMK A01 T01341022  RH  034%=      5-min Rain = 0
KCR2 142145Z 05012KT 13/M02 A3033 RMK A01 T01341022  RH  034%=      5-min Rain = 0
KCR2 142146Z 05010KT 13/M02 A3033 RMK A01 T01331022  RH  034%=      5-min Rain = 0
KCR2 142147Z 07012KT 13/M02 A3033 RMK A01 T01331022  RH  034%=      5-min Rain = 0
KCR2 142148Z 06012KT 13/M02 A3033 RMK A01 T01331021  RH  034%=      5-min Rain = 0
KCR2 142149Z 05015KT 14/M02 A3033 RMK A01 T01351021  RH  034%=      5-min Rain = 0
KCR2 142150Z 06013KT 13/M02 A3033 RMK A01 T01341021  RH  034%=      5-min Rain = 0
KCR2 142151Z 05015KT 13/M02 A3033 RMK A01 T01341021  RH  034%=      5-min Rain = 0
KCR2 142152Z 06013KT 13/M02 A3033 RMK A01 T01341022  RH  034%=      5-min Rain = 0
KCR2 142153Z 06013KT 13/M02 A3033 RMK A01 T01331022  RH  034%=      5-min Rain = 0
KCR2 142154Z 06010KT 13/M02 A3033 RMK A01 T01321022  RH  034%=      5-min Rain = 0
KCR2 142155Z 06012KT 13/M02 A3033 RMK A01 T01331021  RH  034%=      5-min Rain = 0
KCR2 142156Z 06012KT 13/M02 A3033 RMK A01 T01341021  RH  034%=      5-min Rain = 0
KCR2 142157Z 06012KT 13/M02 A3033 RMK A01 T01341022  RH  034%=      5-min Rain = 0
KCR2 142158Z 06014KT 14/M02 A3033 RMK A01 T01351020  RH  034%=      5-min Rain = 0
KCR2 142159Z 06014KT 14/M02 A3033 RMK A01 T01351021  RH  034%=      5-min Rain = 0
KCR2 142200Z 07013KT 13/M02 A3033 RMK A01 T01331021  RH  034%=      5-min Rain = 0
KCR2 142201Z 06014KT 13/M02 A3033 RMK A01 T01311020  RH  035%=      5-min Rain = 0
KCR2 142202Z 06013KT 13/M02 A3033 RMK A01 T01321020  RH  035%=      5-min Rain = 0
KCR2 142203Z 05012KT 13/M02 A3033 RMK A01 T01331019  RH  035%=      5-min Rain = 0
KCR2 142204Z 06012KT 13/M02 A3033 RMK A01 T01331019  RH  035%=      5-min Rain = 0
KCR2 142205Z 05011KT 13/M02 A3033 RMK A01 T01331018  RH  035%=      5-min Rain = 0
KCR2 142206Z 05013KT 13/M02 A3033 RMK A01 T01341019  RH  035%=      5-min Rain = 0
KCR2 142207Z 06013KT 13/M02 A3033 RMK A01 T01331019  RH  035%=      5-min Rain = 0
KCR2 142208Z 06015KT 13/M02 A3033 RMK A01 T01331018  RH  035%=      5-min Rain = 0
KCR2 142209Z 05013KT 13/M02 A3033 RMK A01 T01331017  RH  035%=      5-min Rain = 0
KCR2 142210Z 05015KT 13/M02 A3033 RMK A01 T01331017  RH  035%=      5-min Rain = 0
KCR2 142211Z 05014KT 13/M02 A3034 RMK A01 T01321017  RH  035%=      5-min Rain = 0
KCR2 142212Z 05012KT 13/M02 A3034 RMK A01 T01321018  RH  035%=      5-min Rain = 0
KCR2 142213Z 06012KT 13/M02 A3034 RMK A01 T01321017  RH  036%=      5-min Rain = 0
KCR2 142214Z 05011KT 13/M02 A3034 RMK A01 T01321016  RH  036%=      5-min Rain = 0
KCR2 142215Z 05015KT 13/M02 A3034 RMK A01 T01321015  RH  036%=      5-min Rain = 0
KCR2 142216Z 05012KT 13/M02 A3034 RMK A01 T01321015  RH  036%=      5-min Rain = 0
KCR2 142217Z 04011KT 13/M02 A3034 RMK A01 T01311015  RH  036%=      5-min Rain = 0
KCR2 142218Z 05012KT 13/M02 A3034 RMK A01 T01311015  RH  036%=      5-min Rain = 0
KCR2 142219Z 04012KT 13/M01 A3034 RMK A01 T01311014  RH  036%=      5-min Rain = 0
KCR2 142220Z 05015KT 13/M01 A3034 RMK A01 T01321014  RH  036%=      5-min Rain = 0
KCR2 142221Z 05012KT 13/M01 A3034 RMK A01 T01321014  RH  036%=      5-min Rain = 0
KCR2 142222Z 06010KT 13/M01 A3034 RMK A01 T01311014  RH  037%=      5-min Rain = 0
KCR2 142223Z 05010KT 13/M01 A3034 RMK A01 T01311013  RH  037%=      5-min Rain = 0
KCR2 142224Z 05012KT 13/M01 A3034 RMK A01 T01321012  RH  037%=      5-min Rain = 0
KCR2 142225Z 05011KT 13/M01 A3034 RMK A01 T01311013  RH  037%=      5-min Rain = 0
KCR2 142226Z 05010KT 13/M01 A3034 RMK A01 T01311012  RH  037%=      5-min Rain = 0
KCR2 142227Z 06013KT 13/M01 A3034 RMK A01 T01311012  RH  037%=      5-min Rain = 0
KCR2 142228Z 07012KT 13/M01 A3034 RMK A01 T01321013  RH  037%=      5-min Rain = 0
KCR2 142229Z 06013KT 13/M01 A3034 RMK A01 T01321012  RH  037%=      5-min Rain = 0
KCR2 142230Z 05012KT 13/M01 A3034 RMK A01 T01331012  RH  037%=      5-min Rain = 0
KCR2 142231Z 05011KT 13/M01 A3034 RMK A01 T01331011  RH  037%=      5-min Rain = 0
KCR2 142232Z 05012KT 13/M01 A3034 RMK A01 T01331011  RH  037%=      5-min Rain = 0
KCR2 142233Z 06012KT 13/M01 A3034 RMK A01 T01321012  RH  037%=      5-min Rain = 0
KCR2 142234Z 06011KT 13/M01 A3034 RMK A01 T01311012  RH  037%=      5-min Rain = 0
KCR2 142235Z 06010KT 13/M01 A3034 RMK A01 T01301012  RH  037%=      5-min Rain = 0
KCR2 142236Z 06014KT 13/M01 A3034 RMK A01 T01311011  RH  037%=      5-min Rain = 0
KCR2 142237Z 06013KT 13/M01 A3034 RMK A01 T01311011  RH  037%=      5-min Rain = 0
KCR2 142238Z 06013KT 13/M01 A3034 RMK A01 T01311011  RH  037%=      5-min Rain = 0
KCR2 142239Z 06012KT 13/M01 A3034 RMK A01 T01311011  RH  038%=      5-min Rain = 0
KCR2 142240Z 06012KT 13/M01 A3034 RMK A01 T01301012  RH  038%=      5-min Rain = 0
KCR2 142241Z 07012KT 13/M01 A3034 RMK A01 T01301011  RH  038%=      5-min Rain = 0
KCR2 142242Z 06012KT 13/M01 A3034 RMK A01 T01301010  RH  038%=      5-min Rain = 0
KCR2 142243Z 06011KT 13/M01 A3034 RMK A01 T01301011  RH  038%=      5-min Rain = 0
KCR2 142244Z 05011KT 13/M01 A3034 RMK A01 T01301011  RH  038%=      5-min Rain = 0
KCR2 142245Z 05012KT 13/M01 A3034 RMK A01 T01291011  RH  038%=      5-min Rain = 0
KCR2 142246Z 05013KT 13/M01 A3034 RMK A01 T01291011  RH  038%=      5-min Rain = 0
KCR2 142247Z 05012KT 13/M01 A3034 RMK A01 T01291011  RH  038%=      5-min Rain = 0
KCR2 142248Z 05011KT 13/M01 A3034 RMK A01 T01281010  RH  038%=      5-min Rain = 0
KCR2 142249Z 05012KT 13/M01 A3034 RMK A01 T01291009  RH  038%=      5-min Rain = 0
KCR2 142250Z 05011KT 13/M01 A3034 RMK A01 T01291009  RH  038%=      5-min Rain = 0
KCR2 142251Z 05012KT 13/M01 A3034 RMK A01 T01281010  RH  039%=      5-min Rain = 0
KCR2 142252Z 05011KT 13/M01 A3035 RMK A01 T01281009  RH  039%=      5-min Rain = 0
KCR2 142253Z 05012KT 13/M01 A3035 RMK A01 T01281009  RH  039%=      5-min Rain = 0
KCR2 142254Z 05009KT 13/M01 A3035 RMK A01 T01271009  RH  039%=      5-min Rain = 0
KCR2 142255Z 04011KT 13/M01 A3035 RMK A01 T01271009  RH  039%=      5-min Rain = 0
KCR2 142256Z 05012KT 13/M01 A3035 RMK A01 T01271009  RH  039%=      5-min Rain = 0
KCR2 142257Z 05013KT 13/M01 A3035 RMK A01 T01271010  RH  039%=      5-min Rain = 0
KCR2 142258Z 05013KT 13/M01 A3035 RMK A01 T01271010  RH  039%=      5-min Rain = 0
KCR2 142259Z 05014KT 13/M01 A3035 RMK A01 T01261010  RH  039%=      5-min Rain = 0
KCR2 142300Z 05012KT 13/M01 A3035 RMK A01 T01261009  RH  039%=      5-min Rain = 0
KCR2 142301Z 05011KT 13/M01 A3035 RMK A01 T01251009  RH  039%=      5-min Rain = 0
KCR2 142302Z 05012KT 13/M01 A3035 RMK A01 T01251008  RH  040%=      5-min Rain = 0
KCR2 142303Z 05011KT 13/M01 A3035 RMK A01 T01251009  RH  040%=      5-min Rain = 0
KCR2 142304Z 05010KT 13/M01 A3035 RMK A01 T01251008  RH  040%=      5-min Rain = 0
KCR2 142305Z 06010KT 12/M01 A3035 RMK A01 T01241008  RH  040%=      5-min Rain = 0
KCR2 142306Z 05009KT 12/M01 A3035 RMK A01 T01241008  RH  040%=      5-min Rain = 0
KCR2 142307Z 04008G13KT 12/M01 A3035 RMK A01 T01241008  RH  040%=      5-min Rain = 0
KCR2 142308Z 05012KT 13/M01 A3035 RMK A01 T01251008  RH  040%=      5-min Rain = 0
KCR2 142309Z 04012KT 13/M01 A3035 RMK A01 T01251009  RH  040%=      5-min Rain = 0
KCR2 142310Z 05011KT 12/M01 A3035 RMK A01 T01241010  RH  039%=      5-min Rain = 0
KCR2 142311Z 05014KT 12/M01 A3035 RMK A01 T01241010  RH  039%=      5-min Rain = 0
KCR2 142312Z 07013KT 12/M01 A3035 RMK A01 T01241010  RH  040%=      5-min Rain = 0
KCR2 142313Z 05014KT 12/M01 A3035 RMK A01 T01231010  RH  040%=      5-min Rain = 0
KCR2 142314Z 06010KT 12/M01 A3035 RMK A01 T01231010  RH  040%=      5-min Rain = 0
KCR2 142315Z 05009KT 12/M01 A3035 RMK A01 T01231009  RH  040%=      5-min Rain = 0
KCR2 142316Z 05010KT 12/M01 A3035 RMK A01 T01231009  RH  040%=      5-min Rain = 0
KCR2 142317Z 05012KT 12/M01 A3035 RMK A01 T01231009  RH  040%=      5-min Rain = 0
KCR2 142318Z 05011KT 12/M01 A3035 RMK A01 T01221009  RH  040%=      5-min Rain = 0
KCR2 142319Z 05010KT 12/M01 A3035 RMK A01 T01221009  RH  040%=      5-min Rain = 0
KCR2 142320Z 06010KT 12/M01 A3035 RMK A01 T01221009  RH  041%=      5-min Rain = 0
KCR2 142321Z 06010KT 12/M01 A3036 RMK A01 T01211008  RH  041%=      5-min Rain = 0
KCR2 142322Z 06010KT 12/M01 A3036 RMK A01 T01211009  RH  041%=      5-min Rain = 0
KCR2 142323Z 05009KT 12/M01 A3036 RMK A01 T01211009  RH  041%=      5-min Rain = 0
KCR2 142324Z 05009KT 12/M01 A3036 RMK A01 T01211008  RH  041%=      5-min Rain = 0
KCR2 142325Z 05011KT 12/M01 A3036 RMK A01 T01201009  RH  041%=      5-min Rain = 0
KCR2 142326Z 05011KT 12/M01 A3036 RMK A01 T01191009  RH  041%=      5-min Rain = 0
KCR2 142327Z 06010KT 12/M01 A3036 RMK A01 T01201009  RH  041%=      5-min Rain = 0
KCR2 142328Z 06010KT 12/M01 A3036 RMK A01 T01201010  RH  041%=      5-min Rain = 0
KCR2 142329Z 06009KT 12/M01 A3036 RMK A01 T01191010  RH  041%=      5-min Rain = 0
KCR2 142330Z 06009KT 12/M01 A3036 RMK A01 T01191010  RH  041%=      5-min Rain = 0
KCR2 142331Z 06010KT 12/M01 A3036 RMK A01 T01191010  RH  041%=      5-min Rain = 0
KCR2 142332Z 07011KT 12/M01 A3036 RMK A01 T01181010  RH  041%=      5-min Rain = 0
KCR2 142333Z 06010KT 12/M01 A3036 RMK A01 T01181010  RH  041%=      5-min Rain = 0
KCR2 142334Z 06009KT 12/M01 A3036 RMK A01 T01181010  RH  041%=      5-min Rain = 0
KCR2 142335Z 07009KT 12/M01 A3036 RMK A01 T01171010  RH  041%=      5-min Rain = 0
KCR2 142336Z 06010KT 12/M01 A3036 RMK A01 T01171011  RH  041%=      5-min Rain = 0
KCR2 142337Z 06007KT 12/M01 A3036 RMK A01 T01161011  RH  041%=      5-min Rain = 0
KCR2 142338Z 05007KT 12/M01 A3036 RMK A01 T01161010  RH  042%=      5-min Rain = 0
KCR2 142339Z 06008KT 12/M01 A3036 RMK A01 T01151010  RH  042%=      5-min Rain = 0
KCR2 142340Z 05006KT 12/M01 A3036 RMK A01 T01151010  RH  042%=      5-min Rain = 0
KCR2 142341Z 05007KT 11/M01 A3036 RMK A01 T01141010  RH  042%=      5-min Rain = 0
KCR2 142342Z 05007KT 11/M01 A3036 RMK A01 T01141010  RH  042%=      5-min Rain = 0
KCR2 142343Z 05007KT 11/M01 A3036 RMK A01 T01131010  RH  042%=      5-min Rain = 0
KCR2 142344Z 05009KT 11/M01 A3036 RMK A01 T01131009  RH  043%=      5-min Rain = 0
KCR2 142345Z 05007KT 11/M01 A3036 RMK A01 T01131010  RH  043%=      5-min Rain = 0
KCR2 142346Z 05007KT 11/M01 A3036 RMK A01 T01131009  RH  043%=      5-min Rain = 0
KCR2 142347Z 06008KT 11/M01 A3037 RMK A01 T01111010  RH  043%=      5-min Rain = 0
KCR2 142348Z 06009KT 11/M01 A3037 RMK A01 T01121009  RH  043%=      5-min Rain = 0
KCR2 142349Z 05007KT 11/M01 A3037 RMK A01 T01111010  RH  043%=      5-min Rain = 0
KCR2 142350Z 05007KT 11/M01 A3037 RMK A01 T01111010  RH  043%=      5-min Rain = 0
KCR2 142351Z 06007KT 11/M01 A3037 RMK A01 T01101010  RH  043%=      5-min Rain = 0
KCR2 142352Z 05007KT 11/M01 A3037 RMK A01 T01101010  RH  043%=      5-min Rain = 0
KCR2 142353Z 05008KT 11/M01 A3037 RMK A01 T01091010  RH  043%=      5-min Rain = 0
KCR2 142354Z 05007KT 11/M01 A3037 RMK A01 T01091010  RH  044%=      5-min Rain = 0
KCR2 142355Z 05007KT 11/M01 A3037 RMK A01 T01081010  RH  044%=      5-min Rain = 0
KCR2 142356Z 05006KT 11/M01 A3037 RMK A01 T01081010  RH  044%=      5-min Rain = 0
KCR2 142357Z 05006KT 11/M01 A3037 RMK A01 T01081010  RH  044%=      5-min Rain = 0
KCR2 142358Z 05006KT 11/M01 A3037 RMK A01 T01071010  RH  044%=      5-min Rain = 0
KCR2 142359Z 05006KT 11/M01 A3037 RMK A01 T01071010  RH  044%=      5-min Rain = 0
KCR2 150000Z 05006KT 11/M01 A3037 RMK A01 T01061010  RH  044%=      5-min Rain = 0
KCR2 150001Z 05006KT 11/M01 A3037 RMK A01 T01061010  RH  045%=      5-min Rain = 0
KCR2 150002Z 05006KT 11/M01 A3037 RMK A01 T01051010  RH  045%=      5-min Rain = 0
KCR2 150003Z 05006KT 10/M01 A3037 RMK A01 T01041010  RH  045%=      5-min Rain = 0
KCR2 150004Z 05006KT 10/M01 A3037 RMK A01 T01031010  RH  045%=      5-min Rain = 0
KCR2 150005Z 05006KT 10/M01 A3037 RMK A01 T01031010  RH  045%=      5-min Rain = 0
KCR2 150006Z 05005KT 10/M01 A3037 RMK A01 T01021010  RH  046%=      5-min Rain = 0
KCR2 150007Z 05005KT 10/M01 A3037 RMK A01 T01011010  RH  046%=      5-min Rain = 0
KCR2 150008Z 05005KT 10/M01 A3037 RMK A01 T01001010  RH  046%=      5-min Rain = 0
KCR2 150009Z 05005KT 10/M01 A3038 RMK A01 T01001010  RH  046%=      5-min Rain = 0
KCR2 150010Z 05004KT 10/M01 A3038 RMK A01 T00991010  RH  047%=      5-min Rain = 0
KCR2 150011Z 05005KT 10/M01 A3038 RMK A01 T00991010  RH  047%=      5-min Rain = 0
KCR2 150012Z 05005KT 10/M01 A3038 RMK A01 T00991010  RH  047%=      5-min Rain = 0
KCR2 150013Z 05005KT 10/M01 A3038 RMK A01 T00981010  RH  047%=      5-min Rain = 0
KCR2 150014Z 05005KT 10/M01 A3038 RMK A01 T00981010  RH  047%=      5-min Rain = 0
KCR2 150015Z 06005KT 10/M01 A3038 RMK A01 T00971010  RH  047%=      5-min Rain = 0
KCR2 150016Z 06005KT 10/M01 A3038 RMK A01 T00961010  RH  047%=      5-min Rain = 0
KCR2 150017Z 05005KT 10/M01 A3038 RMK A01 T00961010  RH  048%=      5-min Rain = 0
KCR2 150018Z 05005KT 10/M01 A3038 RMK A01 T00951010  RH  048%=      5-min Rain = 0
KCR2 150019Z 05005KT 09/M01 A3038 RMK A01 T00941011  RH  048%=      5-min Rain = 0
KCR2 150020Z 05005KT 09/M01 A3038 RMK A01 T00941010  RH  048%=      5-min Rain = 0
KCR2 150021Z 05005KT 09/M01 A3038 RMK A01 T00941011  RH  048%=      5-min Rain = 0
KCR2 150022Z 05004KT 09/M01 A3038 RMK A01 T00941010  RH  048%=      5-min Rain = 0
KCR2 150023Z 05004KT 09/M01 A3038 RMK A01 T00931011  RH  048%=      5-min Rain = 0
KCR2 150024Z 05004KT 09/M01 A3038 RMK A01 T00931011  RH  048%=      5-min Rain = 0
KCR2 150025Z 05004KT 09/M01 A3038 RMK A01 T00931010  RH  049%=      5-min Rain = 0
KCR2 150026Z 05004KT 09/M01 A3038 RMK A01 T00931010  RH  049%=      5-min Rain = 0
KCR2 150027Z 05004KT 09/M01 A3038 RMK A01 T00931010  RH  049%=      5-min Rain = 0
KCR2 150028Z 05004KT 09/M01 A3038 RMK A01 T00921010  RH  049%=      5-min Rain = 0
KCR2 150029Z 04004KT 09/M01 A3038 RMK A01 T00931010  RH  049%=      5-min Rain = 0
KCR2 150030Z 04004KT 09/M01 A3038 RMK A01 T00931010  RH  049%=      5-min Rain = 0
KCR2 150031Z 04004KT 09/M01 A3038 RMK A01 T00931010  RH  049%=      5-min Rain = 0
KCR2 150032Z 05004KT 09/M01 A3038 RMK A01 T00921010  RH  049%=      5-min Rain = 0
KCR2 150033Z 05004KT 09/M01 A3038 RMK A01 T00921011  RH  049%=      5-min Rain = 0
KCR2 150034Z 04004KT 09/M01 A3038 RMK A01 T00911011  RH  049%=      5-min Rain = 0
KCR2 150035Z 04005KT 09/M01 A3039 RMK A01 T00911011  RH  049%=      5-min Rain = 0
KCR2 150036Z 04004KT 09/M01 A3039 RMK A01 T00901011  RH  049%=      5-min Rain = 0
KCR2 150037Z 04004KT 09/M01 A3039 RMK A01 T00901011  RH  049%=      5-min Rain = 0
KCR2 150038Z 04004KT 09/M01 A3039 RMK A01 T00891011  RH  049%=      5-min Rain = 0
KCR2 150039Z 04004KT 09/M01 A3039 RMK A01 T00891011  RH  049%=      5-min Rain = 0
KCR2 150040Z 04004KT 09/M01 A3039 RMK A01 T00901011  RH  049%=      5-min Rain = 0
KCR2 150041Z 04004KT 09/M01 A3039 RMK A01 T00891011  RH  050%=      5-min Rain = 0
KCR2 150042Z 04004KT 09/M01 A3039 RMK A01 T00891011  RH  050%=      5-min Rain = 0
KCR2 150043Z 04004KT 09/M01 A3039 RMK A01 T00891011  RH  050%=      5-min Rain = 0
KCR2 150044Z 04003KT 09/M01 A3039 RMK A01 T00891011  RH  050%=      5-min Rain = 0
KCR2 150045Z 04004KT 09/M01 A3039 RMK A01 T00891011  RH  050%=      5-min Rain = 0
KCR2 150046Z 04004KT 09/M01 A3039 RMK A01 T00881011  RH  050%=      5-min Rain = 0
KCR2 150047Z 04004KT 09/M01 A3039 RMK A01 T00881011  RH  050%=      5-min Rain = 0
KCR2 150048Z 04004KT 09/M01 A3039 RMK A01 T00871011  RH  050%=      5-min Rain = 0
KCR2 150049Z 04004KT 09/M01 A3039 RMK A01 T00861011  RH  050%=      5-min Rain = 0
KCR2 150050Z 05004KT 09/M01 A3039 RMK A01 T00861011  RH  051%=      5-min Rain = 0
KCR2 150051Z 05005KT 09/M01 A3039 RMK A01 T00851011  RH  051%=      5-min Rain = 0
KCR2 150052Z 05005KT 08/M01 A3039 RMK A01 T00841011  RH  051%=      5-min Rain = 0
KCR2 150053Z 05004KT 08/M01 A3039 RMK A01 T00841011  RH  051%=      5-min Rain = 0
KCR2 150054Z 05005KT 08/M01 A3039 RMK A01 T00831011  RH  051%=      5-min Rain = 0
KCR2 150055Z 05005KT 08/M01 A3039 RMK A01 T00831011  RH  052%=      5-min Rain = 0
KCR2 150056Z 05004KT 08/M01 A3039 RMK A01 T00831011  RH  052%=      5-min Rain = 0
KCR2 150057Z 05005KT 08/M01 A3039 RMK A01 T00831011  RH  052%=      5-min Rain = 0
KCR2 150058Z 05004KT 08/M01 A3039 RMK A01 T00821011  RH  052%=      5-min Rain = 0
KCR2 150059Z 05005KT 08/M01 A3039 RMK A01 T00821011  RH  052%=      5-min Rain = 0
KCR2 150100Z 05005KT 08/M01 A3039 RMK A01 T00821010  RH  052%=      5-min Rain = 0
KCR2 150101Z 05004KT 08/M01 A3039 RMK A01 T00821010  RH  052%=      5-min Rain = 0
KCR2 150102Z 05005KT 08/M01 A3039 RMK A01 T00821010  RH  052%=      5-min Rain = 0
KCR2 150103Z 05005KT 08/M01 A3039 RMK A01 T00821010  RH  052%=      5-min Rain = 0
KCR2 150104Z 04005KT 08/M01 A3039 RMK A01 T00811010  RH  052%=      5-min Rain = 0
KCR2 150105Z 04005KT 08/M01 A304 RMK A01 T00801010  RH  053%=      5-min Rain = 0
KCR2 150106Z 04006KT 08/M01 A304 RMK A01 T00791011  RH  053%=      5-min Rain = 0
KCR2 150107Z 04006KT 08/M01 A304 RMK A01 T00791010  RH  053%=      5-min Rain = 0
KCR2 150108Z 04007KT 08/M01 A304 RMK A01 T00791010  RH  054%=      5-min Rain = 0
KCR2 150109Z 04007KT 08/M01 A304 RMK A01 T00791010  RH  053%=      5-min Rain = 0
KCR2 150110Z 04007KT 08/M01 A304 RMK A01 T00811009  RH  053%=      5-min Rain = 0
KCR2 150111Z 04007KT 08/M01 A304 RMK A01 T00821009  RH  053%=      5-min Rain = 0
KCR2 150112Z 04006KT 08/M01 A304 RMK A01 T00831009  RH  052%=      5-min Rain = 0
KCR2 150113Z 04006KT 08/M01 A304 RMK A01 T00821009  RH  052%=      5-min Rain = 0
KCR2 150114Z 04006KT 08/M01 A304 RMK A01 T00821009  RH  053%=      5-min Rain = 0
KCR2 150115Z 04007KT 08/M01 A304 RMK A01 T00811010  RH  053%=      5-min Rain = 0
KCR2 150116Z 04008KT 08/M01 A304 RMK A01 T00811010  RH  053%=      5-min Rain = 0
KCR2 150117Z 04008KT 08/M01 A304 RMK A01 T00801010  RH  053%=      5-min Rain = 0
KCR2 150118Z 04008KT 08/M01 A304 RMK A01 T00801010  RH  053%=      5-min Rain = 0
KCR2 150119Z 04007KT 08/M01 A304 RMK A01 T00801010  RH  053%=      5-min Rain = 0
KCR2 150120Z 04007KT 08/M01 A304 RMK A01 T00801010  RH  053%=      5-min Rain = 0
KCR2 150121Z 04007KT 08/M01 A304 RMK A01 T00791010  RH  053%=      5-min Rain = 0
KCR2 150122Z 04007KT 08/M01 A304 RMK A01 T00791010  RH  053%=      5-min Rain = 0
KCR2 150123Z 04008KT 08/M01 A304 RMK A01 T00791010  RH  053%=      5-min Rain = 0
KCR2 150124Z 04008KT 08/M01 A304 RMK A01 T00791010  RH  053%=      5-min Rain = 0
KCR2 150125Z 04008KT 08/M01 A304 RMK A01 T00781011  RH  053%=      5-min Rain = 0
KCR2 150126Z 04007KT 08/M01 A304 RMK A01 T00791010  RH  053%=      5-min Rain = 0
KCR2 150127Z 04007KT 08/M01 A304 RMK A01 T00791010  RH  053%=      5-min Rain = 0
KCR2 150128Z 04007KT 08/M01 A304 RMK A01 T00781011  RH  053%=      5-min Rain = 0
KCR2 150129Z 04007KT 08/M01 A3041 RMK A01 T00781010  RH  053%=      5-min Rain = 0
KCR2 150130Z 04007KT 08/M01 A3041 RMK A01 T00781010  RH  053%=      5-min Rain = 0
KCR2 150131Z 04007KT 08/M01 A3041 RMK A01 T00781010  RH  054%=      5-min Rain = 0
KCR2 150132Z 04007KT 08/M01 A3041 RMK A01 T00781011  RH  054%=      5-min Rain = 0
KCR2 150133Z 04007KT 08/M01 A3041 RMK A01 T00781010  RH  054%=      5-min Rain = 0
KCR2 150134Z 04007KT 08/M01 A3041 RMK A01 T00771011  RH  054%=      5-min Rain = 0
KCR2 150135Z 04007KT 08/M01 A3041 RMK A01 T00761011  RH  054%=      5-min Rain = 0
KCR2 150136Z 04007KT 08/M01 A3041 RMK A01 T00761011  RH  054%=      5-min Rain = 0
KCR2 150137Z 04007KT 08/M01 A3041 RMK A01 T00751011  RH  054%=      5-min Rain = 0
KCR2 150138Z 04007KT 08/M01 A3041 RMK A01 T00751011  RH  054%=      5-min Rain = 0
KCR2 150139Z 04007KT 08/M01 A3041 RMK A01 T00751010  RH  055%=      5-min Rain = 0
KCR2 150140Z 04007KT 08/M01 A3041 RMK A01 T00751011  RH  055%=      5-min Rain = 0
KCR2 150141Z 04007KT 07/M01 A3041 RMK A01 T00741011  RH  055%=      5-min Rain = 0
KCR2 150142Z 04007KT 07/M01 A3041 RMK A01 T00741011  RH  055%=      5-min Rain = 0
KCR2 150143Z 04007KT 07/M01 A3041 RMK A01 T00731011  RH  055%=      5-min Rain = 0
KCR2 150144Z 04007KT 07/M01 A3041 RMK A01 T00731011  RH  055%=      5-min Rain = 0
KCR2 150145Z 04006KT 07/M01 A3041 RMK A01 T00731011  RH  055%=      5-min Rain = 0
KCR2 150146Z 04007KT 07/M01 A3041 RMK A01 T00731011  RH  055%=      5-min Rain = 0
KCR2 150147Z 04007KT 07/M01 A3041 RMK A01 T00721011  RH  055%=      5-min Rain = 0
KCR2 150148Z 04007KT 07/M01 A3041 RMK A01 T00711011  RH  056%=      5-min Rain = 0
KCR2 150149Z 04006KT 07/M01 A3041 RMK A01 T00711011  RH  056%=      5-min Rain = 0
KCR2 150150Z 04006KT 07/M01 A3041 RMK A01 T00701011  RH  056%=      5-min Rain = 0
KCR2 150151Z 04006KT 07/M01 A3041 RMK A01 T00701011  RH  056%=      5-min Rain = 0
KCR2 150152Z 04006KT 07/M01 A3041 RMK A01 T00691011  RH  056%=      5-min Rain = 0
KCR2 150153Z 04006KT 07/M01 A3041 RMK A01 T00691011  RH  057%=      5-min Rain = 0
KCR2 150154Z 04006KT 07/M01 A3041 RMK A01 T00681011  RH  057%=      5-min Rain = 0
KCR2 150155Z 04005KT 07/M01 A3041 RMK A01 T00671012  RH  057%=      5-min Rain = 0
KCR2 150156Z 04005KT 07/M01 A3042 RMK A01 T00671012  RH  057%=      5-min Rain = 0
KCR2 150157Z 04005KT 07/M01 A3042 RMK A01 T00661012  RH  058%=      5-min Rain = 0
KCR2 150158Z 04005KT 07/M01 A3042 RMK A01 T00651012  RH  058%=      5-min Rain = 0
KCR2 150159Z 04005KT 06/M01 A3042 RMK A01 T00641012  RH  058%=      5-min Rain = 0
KCR2 150200Z 04005KT 06/M01 A3042 RMK A01 T00631012  RH  059%=      5-min Rain = 0
KCR2 150201Z 04005KT 06/M01 A3042 RMK A01 T00621012  RH  059%=      5-min Rain = 0
KCR2 150202Z 04005KT 06/M01 A3042 RMK A01 T00611012  RH  059%=      5-min Rain = 0
KCR2 150203Z 05005KT 06/M01 A3042 RMK A01 T00601012  RH  060%=      5-min Rain = 0
KCR2 150204Z 05005KT 06/M01 A3042 RMK A01 T00601012  RH  060%=      5-min Rain = 0
KCR2 150205Z 05005KT 06/M01 A3042 RMK A01 T00601012  RH  060%=      5-min Rain = 0
KCR2 150206Z 05005KT 06/M01 A3042 RMK A01 T00591012  RH  060%=      5-min Rain = 0
KCR2 150207Z 05005KT 06/M01 A3042 RMK A01 T00591012  RH  060%=      5-min Rain = 0
KCR2 150208Z 05005KT 06/M01 A3042 RMK A01 T00581012  RH  061%=      5-min Rain = 0
KCR2 150209Z 05005KT 06/M01 A3042 RMK A01 T00581012  RH  061%=      5-min Rain = 0
KCR2 150210Z 05005KT 06/M01 A3042 RMK A01 T00581012  RH  061%=      5-min Rain = 0
KCR2 150211Z 05005KT 06/M01 A3042 RMK A01 T00571012  RH  061%=      5-min Rain = 0
KCR2 150212Z 05005KT 06/M01 A3042 RMK A01 T00571012  RH  061%=      5-min Rain = 0
KCR2 150213Z 05005KT 06/M01 A3042 RMK A01 T00561012  RH  061%=      5-min Rain = 0
KCR2 150214Z 05005KT 06/M01 A3042 RMK A01 T00561012  RH  061%=      5-min Rain = 0
KCR2 150215Z 05005KT 06/M01 A3042 RMK A01 T00561012  RH  062%=      5-min Rain = 0
KCR2 150216Z 05006KT 06/M01 A3042 RMK A01 T00561012  RH  062%=      5-min Rain = 0
KCR2 150217Z 05006KT 06/M01 A3042 RMK A01 T00551012  RH  062%=      5-min Rain = 0
KCR2 150218Z 05006KT 06/M01 A3042 RMK A01 T00551013  RH  062%=      5-min Rain = 0
KCR2 150219Z 05006KT 05/M01 A3042 RMK A01 T00541013  RH  062%=      5-min Rain = 0
KCR2 150220Z 05005KT 05/M01 A3042 RMK A01 T00531013  RH  062%=      5-min Rain = 0
KCR2 150221Z 04005KT 05/M01 A3042 RMK A01 T00531013  RH  063%=      5-min Rain = 0
KCR2 150222Z 04006KT 05/M01 A3042 RMK A01 T00521013  RH  063%=      5-min Rain = 0
KCR2 150223Z 04006KT 05/M01 A3042 RMK A01 T00521013  RH  063%=      5-min Rain = 0
KCR2 150224Z 05006KT 05/M01 A3042 RMK A01 T00521013  RH  063%=      5-min Rain = 0
KCR2 150225Z 05006KT 05/M01 A3042 RMK A01 T00511013  RH  063%=      5-min Rain = 0
KCR2 150226Z 05005KT 05/M01 A3042 RMK A01 T00521012  RH  063%=      5-min Rain = 0
KCR2 150227Z 05005KT 05/M01 A3042 RMK A01 T00521012  RH  063%=      5-min Rain = 0
KCR2 150228Z 05005KT 05/M01 A3042 RMK A01 T00511013  RH  063%=      5-min Rain = 0
KCR2 150229Z 05005KT 05/M01 A3042 RMK A01 T00511013  RH  063%=      5-min Rain = 0
KCR2 150230Z 05005KT 05/M01 A3042 RMK A01 T00511013  RH  063%=      5-min Rain = 0
KCR2 150231Z 05005KT 05/M01 A3042 RMK A01 T00521012  RH  063%=      5-min Rain = 0
KCR2 150232Z 05005KT 05/M01 A3043 RMK A01 T00521013  RH  063%=      5-min Rain = 0
KCR2 150233Z 04005KT 05/M01 A3043 RMK A01 T00521012  RH  063%=      5-min Rain = 0
KCR2 150234Z 04005KT 05/M01 A3043 RMK A01 T00521012  RH  063%=      5-min Rain = 0
KCR2 150235Z 04005KT 05/M01 A3043 RMK A01 T00511013  RH  063%=      5-min Rain = 0
KCR2 150236Z 04005KT 05/M01 A3043 RMK A01 T00511012  RH  063%=      5-min Rain = 0
KCR2 150237Z 04005KT 05/M01 A3043 RMK A01 T00511013  RH  063%=      5-min Rain = 0
KCR2 150238Z 04005KT 05/M01 A3043 RMK A01 T00511013  RH  064%=      5-min Rain = 0
KCR2 150239Z 04005KT 05/M01 A3043 RMK A01 T00511013  RH  064%=      5-min Rain = 0
KCR2 150240Z 04004KT 05/M01 A3043 RMK A01 T00511012  RH  064%=      5-min Rain = 0
KCR2 150241Z 04004KT 05/M01 A3043 RMK A01 T00511012  RH  064%=      5-min Rain = 0
KCR2 150242Z 04004KT 05/M01 A3043 RMK A01 T00511012  RH  064%=      5-min Rain = 0
KCR2 150243Z 04004KT 05/M01 A3043 RMK A01 T00511012  RH  064%=      5-min Rain = 0
KCR2 150244Z 04005KT 05/M01 A3043 RMK A01 T00511012  RH  064%=      5-min Rain = 0
KCR2 150245Z 04005KT 05/M01 A3043 RMK A01 T00501012  RH  064%=      5-min Rain = 0
KCR2 150246Z 04004KT 05/M01 A3043 RMK A01 T00501012  RH  064%=      5-min Rain = 0
KCR2 150247Z 04005KT 05/M01 A3043 RMK A01 T00501012  RH  064%=      5-min Rain = 0
KCR2 150248Z 04005KT 05/M01 A3043 RMK A01 T00501012  RH  064%=      5-min Rain = 0
KCR2 150249Z 04005KT 05/M01 A3043 RMK A01 T00501012  RH  064%=      5-min Rain = 0
KCR2 150250Z 04005KT 05/M01 A3043 RMK A01 T00491013  RH  064%=      5-min Rain = 0
KCR2 150251Z 04005KT 05/M01 A3043 RMK A01 T00481012  RH  065%=      5-min Rain = 0
KCR2 150252Z 04005KT 05/M01 A3043 RMK A01 T00481012  RH  065%=      5-min Rain = 0
KCR2 150253Z 04005KT 05/M01 A3043 RMK A01 T00471012  RH  065%=      5-min Rain = 0
KCR2 150254Z 04005KT 05/M01 A3043 RMK A01 T00471012  RH  065%=      5-min Rain = 0
KCR2 150255Z 05005KT 05/M01 A3043 RMK A01 T00471012  RH  065%=      5-min Rain = 0
KCR2 150256Z 05005KT 05/M01 A3043 RMK A01 T00471012  RH  066%=      5-min Rain = 0
KCR2 150257Z 05005KT 05/M01 A3043 RMK A01 T00471011  RH  066%=      5-min Rain = 0
KCR2 150258Z 05005KT 05/M01 A3043 RMK A01 T00461012  RH  066%=      5-min Rain = 0
KCR2 150259Z 04005KT 05/M01 A3043 RMK A01 T00461012  RH  066%=      5-min Rain = 0
KCR2 150300Z 05005KT 05/M01 A3044 RMK A01 T00461012  RH  066%=      5-min Rain = 0
KCR2 150301Z 04005KT 05/M01 A3044 RMK A01 T00461012  RH  066%=      5-min Rain = 0
KCR2 150302Z 05005KT 05/M01 A3044 RMK A01 T00451012  RH  066%=      5-min Rain = 0
KCR2 150303Z 05005KT 05/M01 A3044 RMK A01 T00451012  RH  066%=      5-min Rain = 0
KCR2 150304Z 04005KT 05/M01 A3044 RMK A01 T00451012  RH  066%=      5-min Rain = 0
KCR2 150305Z 04005KT 05/M01 A3044 RMK A01 T00451012  RH  066%=      5-min Rain = 0
KCR2 150306Z 04006KT 04/M01 A3044 RMK A01 T00441013  RH  067%=      5-min Rain = 0
KCR2 150307Z 04005KT 04/M01 A3044 RMK A01 T00431013  RH  067%=      5-min Rain = 0
KCR2 150308Z 04005KT 04/M01 A3044 RMK A01 T00421013  RH  067%=      5-min Rain = 0
KCR2 150309Z 04006KT 04/M01 A3044 RMK A01 T00411013  RH  068%=      5-min Rain = 0
KCR2 150310Z 05006KT 04/M01 A3044 RMK A01 T00411013  RH  068%=      5-min Rain = 0
KCR2 150311Z 05006KT 04/M01 A3044 RMK A01 T00411013  RH  068%=      5-min Rain = 0
KCR2 150312Z 05006KT 04/M01 A3044 RMK A01 T00411013  RH  068%=      5-min Rain = 0
KCR2 150313Z 05006KT 04/M01 A3044 RMK A01 T00401013  RH  068%=      5-min Rain = 0
KCR2 150314Z 05006KT 04/M01 A3044 RMK A01 T00411013  RH  068%=      5-min Rain = 0
KCR2 150315Z 05006KT 04/M01 A3044 RMK A01 T00411014  RH  068%=      5-min Rain = 0
KCR2 150316Z 05006KT 04/M01 A3044 RMK A01 T00411014  RH  068%=      5-min Rain = 0
KCR2 150317Z 05006KT 04/M01 A3044 RMK A01 T00411014  RH  068%=      5-min Rain = 0
KCR2 150318Z 05006KT 04/M01 A3044 RMK A01 T00411013  RH  068%=      5-min Rain = 0
KCR2 150319Z 05006KT 04/M01 A3044 RMK A01 T00411013  RH  068%=      5-min Rain = 0
KCR2 150320Z 05006KT 04/M01 A3044 RMK A01 T00421013  RH  068%=      5-min Rain = 0
KCR2 150321Z 05006KT 04/M01 A3044 RMK A01 T00421013  RH  068%=      5-min Rain = 0
KCR2 150322Z 05006KT 04/M01 A3044 RMK A01 T00421013  RH  068%=      5-min Rain = 0
KCR2 150323Z 06006KT 04/M01 A3044 RMK A01 T00411013  RH  068%=      5-min Rain = 0
KCR2 150324Z 06006KT 04/M01 A3044 RMK A01 T00411013  RH  068%=      5-min Rain = 0
KCR2 150325Z 06006KT 04/M01 A3044 RMK A01 T00421013  RH  067%=      5-min Rain = 0
KCR2 150326Z 06006KT 04/M01 A3044 RMK A01 T00421014  RH  067%=      5-min Rain = 0
KCR2 150327Z 06005KT 04/M01 A3044 RMK A01 T00421013  RH  067%=      5-min Rain = 0
KCR2 150328Z 06005KT 04/M01 A3044 RMK A01 T00421014  RH  067%=      5-min Rain = 0
KCR2 150329Z 06005KT 04/M01 A3044 RMK A01 T00411014  RH  067%=      5-min Rain = 0
KCR2 150330Z 06004KT 04/M01 A3044 RMK A01 T00401014  RH  068%=      5-min Rain = 0
KCR2 150331Z 07004KT 04/M01 A3044 RMK A01 T00401014  RH  068%=      5-min Rain = 0
KCR2 150332Z 08004KT 04/M01 A3044 RMK A01 T00391014  RH  068%=      5-min Rain = 0
KCR2 150333Z 09003KT 04/M02 A3044 RMK A01 T00381015  RH  068%=      5-min Rain = 0
KCR2 150334Z 10003KT 04/M02 A3044 RMK A01 T00361016  RH  068%=      5-min Rain = 0
KCR2 150335Z 09003KT 04/M02 A3044 RMK A01 T00361016  RH  069%=      5-min Rain = 0
KCR2 150336Z 09003KT 04/M02 A3044 RMK A01 T00351016  RH  069%=      5-min Rain = 0
KCR2 150337Z 08003KT 04/M02 A3044 RMK A01 T00351015  RH  070%=      5-min Rain = 0
KCR2 150338Z 08003KT 04/M02 A3044 RMK A01 T00351015  RH  070%=      5-min Rain = 0
KCR2 150339Z 08004KT 04/M02 A3044 RMK A01 T00351015  RH  070%=      5-min Rain = 0
KCR2 150340Z 08004KT 04/M02 A3044 RMK A01 T00351015  RH  070%=      5-min Rain = 0
KCR2 150341Z 08004KT 04/M02 A3044 RMK A01 T00351015  RH  070%=      5-min Rain = 0
KCR2 150342Z 10004KT 04/M02 A3044 RMK A01 T00351015  RH  070%=      5-min Rain = 0
KCR2 150343Z 12003KT 04/M02 A3044 RMK A01 T00351015  RH  070%=      5-min Rain = 0
KCR2 150344Z 15003KT 03/M02 A3044 RMK A01 T00331015  RH  070%=      5-min Rain = 0
KCR2 150345Z 15004KT 03/M02 A3044 RMK A01 T00321016  RH  071%=      5-min Rain = 0
KCR2 150346Z 14004KT 03/M02 A3044 RMK A01 T00321015  RH  071%=      5-min Rain = 0
KCR2 150347Z 14004KT 03/M02 A3044 RMK A01 T00321015  RH  071%=      5-min Rain = 0
KCR2 150348Z 13004KT 03/M01 A3044 RMK A01 T00321014  RH  072%=      5-min Rain = 0
KCR2 150349Z 12003KT 03/M01 A3044 RMK A01 T00341013  RH  071%=      5-min Rain = 0
KCR2 150350Z 12004KT 04/M01 A3044 RMK A01 T00351013  RH  071%=      5-min Rain = 0
KCR2 150351Z 11004KT 04/M01 A3044 RMK A01 T00361013  RH  070%=      5-min Rain = 0
KCR2 150352Z 13003KT 04/M01 A3044 RMK A01 T00371013  RH  070%=      5-min Rain = 0
KCR2 150353Z 13003KT 04/M01 A3044 RMK A01 T00371014  RH  070%=      5-min Rain = 0
KCR2 150354Z 14003KT 04/M01 A3044 RMK A01 T00371014  RH  070%=      5-min Rain = 0
KCR2 150355Z 13003KT 04/M01 A3044 RMK A01 T00371014  RH  070%=      5-min Rain = 0
KCR2 150356Z 13004KT 04/M01 A3044 RMK A01 T00361014  RH  070%=      5-min Rain = 0
KCR2 150357Z 13004KT 04/M01 A3044 RMK A01 T00361014  RH  070%=      5-min Rain = 0
KCR2 150358Z 12004KT 04/M01 A3044 RMK A01 T00361013  RH  070%=      5-min Rain = 0
KCR2 150359Z 12004KT 04/M01 A3044 RMK A01 T00361013  RH  070%=      5-min Rain = 0
KCR2 150400Z 12003KT 04/M01 A3044 RMK A01 T00371013  RH  070%=      5-min Rain = 0
KCR2 150401Z 12004KT 04/M01 A3044 RMK A01 T00381013  RH  069%=      5-min Rain = 0
KCR2 150402Z 11004KT 04/M01 A3044 RMK A01 T00391013  RH  069%=      5-min Rain = 0
KCR2 150403Z 12004KT 04/M01 A3044 RMK A01 T00391013  RH  069%=      5-min Rain = 0
KCR2 150404Z 12004KT 04/M01 A3044 RMK A01 T00411013  RH  068%=      5-min Rain = 0
KCR2 150405Z 11004KT 04/M01 A3044 RMK A01 T00411013  RH  068%=      5-min Rain = 0
KCR2 150406Z 11004KT 04/M01 A3044 RMK A01 T00421013  RH  068%=      5-min Rain = 0
KCR2 150407Z 12004KT 04/M01 A3044 RMK A01 T00431013  RH  067%=      5-min Rain = 0
KCR2 150408Z 13003KT 04/M02 A3044 RMK A01 T00421015  RH  067%=      5-min Rain = 0
KCR2 150409Z 13003KT 04/M02 A3044 RMK A01 T00391015  RH  067%=      5-min Rain = 0
KCR2 150410Z 13003KT 04/M01 A3044 RMK A01 T00391014  RH  069%=      5-min Rain = 0
KCR2 150411Z 13003KT 04/M01 A3044 RMK A01 T00391013  RH  069%=      5-min Rain = 0
KCR2 150412Z 13004KT 04/M01 A3044 RMK A01 T00401013  RH  069%=      5-min Rain = 0
KCR2 150413Z 12004KT 04/M01 A3044 RMK A01 T00401013  RH  068%=      5-min Rain = 0
KCR2 150414Z 12004KT 04/M01 A3044 RMK A01 T00411013  RH  068%=      5-min Rain = 0
KCR2 150415Z 12004KT 04/M01 A3044 RMK A01 T00411013  RH  068%=      5-min Rain = 0
KCR2 150416Z 11003KT 04/M01 A3044 RMK A01 T00411013  RH  068%=      5-min Rain = 0
KCR2 150417Z 06002KT 04/M01 A3044 RMK A01 T00411013  RH  068%=      5-min Rain = 0
KCR2 150418Z 05001KT 04/M01 A3044 RMK A01 T00411013  RH  068%=      5-min Rain = 0
KCR2 150419Z 05001KT 04/M01 A3044 RMK A01 T00401014  RH  068%=      5-min Rain = 0
KCR2 150420Z 06001KT 04/M01 A3044 RMK A01 T00391014  RH  068%=      5-min Rain = 0
KCR2 150421Z 06001KT 04/M01 A3044 RMK A01 T00391014  RH  069%=      5-min Rain = 0
KCR2 150422Z 12004KT 04/M01 A3044 RMK A01 T00381014  RH  069%=      5-min Rain = 0
KCR2 150423Z 11004KT 04/M01 A3044 RMK A01 T00371014  RH  069%=      5-min Rain = 0
KCR2 150424Z 11005KT 04/M01 A3044 RMK A01 T00371014  RH  069%=      5-min Rain = 0
KCR2 150425Z 11004KT 04/M01 A3044 RMK A01 T00371014  RH  070%=      5-min Rain = 0
KCR2 150426Z 13004KT 04/M01 A3044 RMK A01 T00361014  RH  070%=      5-min Rain = 0
KCR2 150427Z 13004KT 04/M01 A3044 RMK A01 T00361014  RH  070%=      5-min Rain = 0
KCR2 150428Z 12004KT 04/M02 A3044 RMK A01 T00351015  RH  070%=      5-min Rain = 0
KCR2 150429Z 12003KT 03/M02 A3044 RMK A01 T00341015  RH  070%=      5-min Rain = 0
KCR2 150430Z 09004KT 03/M02 A3044 RMK A01 T00331015  RH  071%=      5-min Rain = 0
KCR2 150431Z 09004KT 03/M02 A3044 RMK A01 T00331015  RH  071%=      5-min Rain = 0
KCR2 150432Z 10005KT 03/M02 A3044 RMK A01 T00321015  RH  071%=      5-min Rain = 0
KCR2 150433Z 10006KT 03/M02 A3044 RMK A01 T00321015  RH  071%=      5-min Rain = 0
KCR2 150434Z 10006KT 03/M02 A3044 RMK A01 T00311015  RH  072%=      5-min Rain = 0
KCR2 150435Z 10005KT 03/M02 A3044 RMK A01 T00311015  RH  072%=      5-min Rain = 0
KCR2 150436Z 10006KT 03/M02 A3044 RMK A01 T00311015  RH  072%=      5-min Rain = 0
KCR2 150437Z 10005KT 03/M02 A3044 RMK A01 T00301015  RH  072%=      5-min Rain = 0
KCR2 150438Z 10006KT 03/M02 A3044 RMK A01 T00301015  RH  072%=      5-min Rain = 0
KCR2 150439Z 10005KT 03/M02 A3044 RMK A01 T00301015  RH  072%=      5-min Rain = 0
KCR2 150440Z 09006KT 03/M02 A3044 RMK A01 T00301015  RH  072%=      5-min Rain = 0
KCR2 150441Z 09006KT 03/M02 A3044 RMK A01 T00301015  RH  072%=      5-min Rain = 0
KCR2 150442Z 09006KT 03/M02 A3044 RMK A01 T00301015  RH  072%=      5-min Rain = 0
KCR2 150443Z 09006KT 03/M02 A3044 RMK A01 T00301015  RH  073%=      5-min Rain = 0
KCR2 150444Z 09006KT 03/M01 A3044 RMK A01 T00301014  RH  073%=      5-min Rain = 0
KCR2 150445Z 09007KT 03/M01 A3044 RMK A01 T00301014  RH  073%=      5-min Rain = 0
KCR2 150446Z 09007KT 03/M01 A3044 RMK A01 T00301014  RH  073%=      5-min Rain = 0
KCR2 150447Z 09007KT 03/M01 A3044 RMK A01 T00301014  RH  073%=      5-min Rain = 0
KCR2 150448Z 09007KT 03/M01 A3043 RMK A01 T00311014  RH  073%=      5-min Rain = 0
KCR2 150449Z 09007KT 03/M01 A3043 RMK A01 T00311014  RH  073%=      5-min Rain = 0
KCR2 150450Z 09007KT 03/M01 A3043 RMK A01 T00311013  RH  073%=      5-min Rain = 0
KCR2 150451Z 09007KT 03/M01 A3043 RMK A01 T00311014  RH  072%=      5-min Rain = 0
KCR2 150452Z 09007KT 03/M01 A3044 RMK A01 T00311014  RH  072%=      5-min Rain = 0
KCR2 150453Z 09007KT 03/M01 A3044 RMK A01 T00311014  RH  073%=      5-min Rain = 0
KCR2 150454Z 09007KT 03/M01 A3044 RMK A01 T00301014  RH  073%=      5-min Rain = 0
KCR2 150455Z 09007KT 03/M01 A3044 RMK A01 T00301014  RH  073%=      5-min Rain = 0
KCR2 150456Z 09007KT 03/M01 A3044 RMK A01 T00301014  RH  073%=      5-min Rain = 0
KCR2 150457Z 09006KT 03/M01 A3044 RMK A01 T00301013  RH  073%=      5-min Rain = 0
KCR2 150458Z 10006KT 03/M01 A3044 RMK A01 T00291014  RH  073%=      5-min Rain = 0
KCR2 150459Z 10006KT 03/M01 A3044 RMK A01 T00291014  RH  073%=      5-min Rain = 0
KCR2 150500Z 09006KT 03/M02 A3044 RMK A01 T00281015  RH  073%=      5-min Rain = 0
KCR2 150501Z 09006KT 03/M02 A3044 RMK A01 T00281015  RH  074%=      5-min Rain = 0
KCR2 150502Z 10006KT 03/M02 A3044 RMK A01 T00271015  RH  074%=      5-min Rain = 0
KCR2 150503Z 10006KT 03/M02 A3044 RMK A01 T00261015  RH  074%=      5-min Rain = 0
KCR2 150504Z 10006KT 03/M02 A3044 RMK A01 T00261015  RH  074%=      5-min Rain = 0
KCR2 150505Z 08004KT 03/M02 A3044 RMK A01 T00251015  RH  075%=      5-min Rain = 0
KCR2 150506Z 05002KT 03/M02 A3044 RMK A01 T00251015  RH  075%=      5-min Rain = 0
KCR2 150507Z 04002KT 02/M02 A3044 RMK A01 T00241016  RH  075%=      5-min Rain = 0
KCR2 150508Z 05002KT 02/M02 A3044 RMK A01 T00241016  RH  075%=      5-min Rain = 0
KCR2 150509Z 07004KT 02/M02 A3044 RMK A01 T00231016  RH  075%=      5-min Rain = 0
KCR2 150510Z 06003KT 02/M02 A3044 RMK A01 T00231016  RH  076%=      5-min Rain = 0
KCR2 150511Z 06003KT 02/M02 A3044 RMK A01 T00231016  RH  076%=      5-min Rain = 0
KCR2 150512Z 06002KT 02/M02 A3044 RMK A01 T00221016  RH  076%=      5-min Rain = 0
KCR2 150513Z 06002KT 02/M02 A3044 RMK A01 T00221016  RH  076%=      5-min Rain = 0
KCR2 150514Z 06002KT 02/M02 A3044 RMK A01 T00221016  RH  076%=      5-min Rain = 0
KCR2 150515Z 05002KT 02/M02 A3044 RMK A01 T00221016  RH  076%=      5-min Rain = 0
KCR2 150516Z 05001KT 02/M02 A3044 RMK A01 T00221016  RH  076%=      5-min Rain = 0
KCR2 150517Z 05001KT 02/M02 A3044 RMK A01 T00221016  RH  076%=      5-min Rain = 0
KCR2 150518Z 04001KT 02/M02 A3045 RMK A01 T00211016  RH  076%=      5-min Rain = 0
KCR2 150519Z 05001KT 02/M02 A3045 RMK A01 T00211016  RH  076%=      5-min Rain = 0
KCR2 150520Z 05001KT 02/M02 A3045 RMK A01 T00211016  RH  076%=      5-min Rain = 0
KCR2 150521Z 05001KT 02/M02 A3045 RMK A01 T00211016  RH  076%=      5-min Rain = 0
KCR2 150522Z 05001KT 02/M02 A3045 RMK A01 T00211016  RH  076%=      5-min Rain = 0
KCR2 150523Z 05001KT 02/M02 A3045 RMK A01 T00211016  RH  076%=      5-min Rain = 0
KCR2 150524Z 05001KT 02/M02 A3045 RMK A01 T00211017  RH  076%=      5-min Rain = 0
KCR2 150525Z 06001KT 02/M02 A3045 RMK A01 T00211017  RH  076%=      5-min Rain = 0
KCR2 150526Z 05001KT 02/M02 A3045 RMK A01 T00211017  RH  076%=      5-min Rain = 0
KCR2 150527Z 05001KT 02/M02 A3045 RMK A01 T00211017  RH  076%=      5-min Rain = 0
KCR2 150528Z 06002KT 02/M02 A3045 RMK A01 T00201017  RH  076%=      5-min Rain = 0
KCR2 150529Z 06002KT 02/M02 A3045 RMK A01 T00201017  RH  076%=      5-min Rain = 0
KCR2 150530Z 05002KT 02/M02 A3045 RMK A01 T00191017  RH  077%=      5-min Rain = 0
KCR2 150531Z 06002KT 02/M02 A3045 RMK A01 T00181018  RH  077%=      5-min Rain = 0
KCR2 150532Z 06002KT 02/M02 A3045 RMK A01 T00181018  RH  077%=      5-min Rain = 0
KCR2 150533Z 06002KT 02/M02 A3045 RMK A01 T00181017  RH  077%=      5-min Rain = 0
KCR2 150534Z 06002KT 02/M02 A3045 RMK A01 T00171018  RH  078%=      5-min Rain = 0
KCR2 150535Z 09004KT 02/M02 A3045 RMK A01 T00171018  RH  078%=      5-min Rain = 0
KCR2 150536Z 10005KT 02/M02 A3045 RMK A01 T00171017  RH  078%=      5-min Rain = 0
KCR2 150537Z 10006KT 02/M02 A3044 RMK A01 T00171018  RH  078%=      5-min Rain = 0
KCR2 150538Z 10006KT 02/M02 A3044 RMK A01 T00171018  RH  078%=      5-min Rain = 0
KCR2 150539Z 11006KT 02/M02 A3044 RMK A01 T00171018  RH  078%=      5-min Rain = 0
KCR2 150540Z 10005KT 02/M02 A3044 RMK A01 T00171018  RH  078%=      5-min Rain = 0
KCR2 150541Z 08005KT 02/M02 A3044 RMK A01 T00171018  RH  078%=      5-min Rain = 0
KCR2 150542Z 09005KT 02/M02 A3044 RMK A01 T00171018  RH  078%=      5-min Rain = 0
KCR2 150543Z 10006KT 02/M02 A3044 RMK A01 T00171018  RH  078%=      5-min Rain = 0
KCR2 150544Z 10006KT 02/M02 A3044 RMK A01 T00171018  RH  078%=      5-min Rain = 0
KCR2 150545Z 07004KT 02/M02 A3044 RMK A01 T00171018  RH  078%=      5-min Rain = 0
KCR2 150546Z 06004KT 02/M02 A3044 RMK A01 T00171018  RH  078%=      5-min Rain = 0
KCR2 150547Z 06004KT 02/M02 A3044 RMK A01 T00171018  RH  078%=      5-min Rain = 0
KCR2 150548Z 10005KT 02/M02 A3045 RMK A01 T00171018  RH  078%=      5-min Rain = 0
KCR2 150549Z 10006KT 02/M02 A3045 RMK A01 T00171018  RH  077%=      5-min Rain = 0
KCR2 150550Z 10006KT 02/M02 A3045 RMK A01 T00181017  RH  077%=      5-min Rain = 0
KCR2 150551Z 10006KT 02/M02 A3045 RMK A01 T00181018  RH  077%=      5-min Rain = 0
KCR2 150552Z 10006KT 02/M02 A3045 RMK A01 T00181018  RH  077%=      5-min Rain = 0
KCR2 150553Z 10006KT 02/M02 A3045 RMK A01 T00181018  RH  077%=      5-min Rain = 0
KCR2 150554Z 10006KT 02/M02 A3045 RMK A01 T00181018  RH  077%=      5-min Rain = 0
KCR2 150555Z 10006KT 02/M02 A3045 RMK A01 T00171019  RH  077%=      5-min Rain = 0
KCR2 150556Z 10006KT 02/M02 A3045 RMK A01 T00171018  RH  077%=      5-min Rain = 0
KCR2 150557Z 09006KT 02/M02 A3045 RMK A01 T00171018  RH  077%=      5-min Rain = 0
KCR2 150558Z 09006KT 02/M02 A3045 RMK A01 T00171018  RH  077%=      5-min Rain = 0
KCR2 150559Z 09006KT 02/M02 A3044 RMK A01 T00171018  RH  077%=      5-min Rain = 0

Page generated in 0.0719 seconds.